GEFSMA_500_meanwind_042.txt.gz
Wind_Speed
9 11 11 13 13 14 14 15 16 18 20 22 23 22 22 22 22 22 23 24 25 25 25 25 26 27 27 27 28 29 29 29 30 30 31 32 32 32 33 33 34 34 34
9 11 12 13 14 14 15 16 16 17 19 21 22 22 23 24 25 25 25 26 27 28 29 29 30 30 30 31 32 32 33 33 33 34 34 34 35 35 36 36 36 37 37
10 11 13 12 13 13 15 16 16 16 17 19 21 23 25 27 27 27 27 28 29 29 30 31 32 33 34 34 35 35 36 37 37 37 38 38 38 39 39 40 40 40 41
12 13 14 14 14 14 14 15 16 16 16 17 19 22 25 27 29 29 29 29 30 31 32 32 34 35 36 37 38 39 40 41 41 41 41 42 42 43 43 44 45 45 46
15 15 15 16 16 16 16 16 16 16 16 16 18 20 22 25 27 28 29 30 32 33 33 34 36 37 38 39 40 42 42 43 44 45 46 46 47 48 49 49 51 51 52
18 18 18 18 19 18 18 17 17 17 16 16 17 18 20 23 26 28 28 30 31 32 32 34 36 37 39 40 42 43 44 45 47 48 49 51 52 54 55 56 57 58 58
22 22 21 20 20 19 19 19 19 17 18 18 18 19 20 21 23 25 27 29 30 31 32 34 36 37 39 42 44 45 47 48 50 51 53 55 57 59 60 62 63 64 65
25 25 25 23 22 22 22 22 21 20 20 20 20 21 21 22 23 25 26 28 30 32 34 36 38 40 42 44 46 48 50 52 54 56 58 61 63 65 67 68 70 71 72
28 27 27 26 24 25 25 24 24 24 24 24 24 24 25 25 27 28 28 30 33 35 37 39 41 43 45 47 49 51 54 56 59 61 63 66 68 70 72 73 75 76 77
30 29 29 28 28 28 28 27 27 27 27 28 28 29 30 30 31 31 33 35 37 39 41 43 46 48 50 52 54 57 59 61 64 67 69 71 73 75 76 78 79 80 81
32 32 31 30 30 30 29 30 30 30 31 32 32 33 34 35 35 36 38 40 42 44 46 49 51 53 55 58 60 63 65 67 70 72 74 76 77 77 78 79 80 81 81
33 33 32 32 32 31 32 32 33 34 35 36 37 38 39 39 40 42 43 45 47 49 52 54 56 58 61 63 66 68 70 72 74 75 77 78 78 79 79 79 80 80 80
34 34 34 34 34 34 35 35 36 37 38 40 41 42 43 44 45 47 48 49 51 54 56 59 61 63 65 67 69 71 73 74 75 76 77 77 78 78 77 77 76 76 75
35 35 35 36 37 37 38 39 40 41 42 44 45 46 48 49 49 51 52 53 55 57 59 61 64 66 67 69 70 72 73 75 75 75 75 75 74 73 73 73 72 72 71
37 38 39 40 40 40 41 43 44 45 46 48 49 50 51 52 53 54 55 56 57 58 60 62 64 66 67 69 70 71 72 72 72 72 71 71 71 70 70 69 68 67 66
41 42 43 43 44 44 45 47 48 50 51 51 52 53 54 55 56 57 57 58 59 60 61 62 64 65 66 67 68 68 68 68 68 68 68 68 67 65 63 62 61 59 58
45 46 46 47 48 49 50 52 53 54 54 55 56 56 56 57 58 58 59 59 60 61 61 62 63 64 65 65 65 66 66 65 65 64 63 61 59 57 56 54 53 52 50
49 50 51 52 53 55 56 56 56 57 57 58 58 58 58 58 59 59 59 60 60 61 61 60 60 61 62 63 63 62 61 61 59 57 56 54 53 51 48 47 46 46 45
54 55 57 58 58 59 59 59 59 60 60 59 59 58 58 59 59 59 60 60 59 59 59 58 58 59 59 59 58 56 55 53 52 51 49 47 45 44 43 42 42 42 42
58 59 61 61 61 61 60 60 60 59 58 58 58 59 59 59 59 59 58 58 57 57 56 56 56 55 55 54 52 50 47 46 45 44 44 42 41 40 39 38 38 37 37
60 61 61 60 59 59 58 58 58 58 57 58 58 59 59 58 57 57 56 56 55 54 54 53 52 50 49 47 45 44 42 40 39 39 38 37 37 36 36 35 35 34 34
56 57 57 57 57 57 56 56 57 57 57 57 57 57 56 56 55 55 54 53 52 51 50 48 46 44 42 40 38 36 35 34 33 34 33 33 33 33 33 33 33 33 32
52 53 53 54 55 55 56 56 56 56 55 55 54 54 54 54 53 51 50 49 48 47 44 42 39 37 34 32 31 30 30 30 30 29 28 28 30 30 31 31 31 31 30
49 50 51 51 52 53 54 53 53 53 53 52 52 51 50 49 47 45 44 44 43 41 38 35 31 29 27 26 26 25 24 25 26 25 24 24 26 27 29 30 29 27 27
47 48 49 50 50 51 51 51 51 50 49 49 47 45 43 41 40 39 38 36 35 33 31 27 24 23 23 22 22 21 22 22 23 23 24 24 24 25 26 27 25 24 23
45 46 46 46 47 47 47 47 46 45 44 42 40 38 37 35 34 32 29 27 25 23 21 20 20 20 19 19 19 19 20 20 20 20 21 21 22 22 22 24 23 22 21

GEFSMA_500_meanwind_048.txt.gz
Wind_Speed
8 8 9 9 9 9 11 12 12 13 12 13 14 14 14 16 18 19 21 22 23 23 24 25 25 26 27 28 28 29 30 31 31 32 32 32 32 32 32 33 33 34 34
10 10 11 11 11 11 12 13 13 14 14 14 14 14 14 15 17 19 21 23 24 25 26 27 28 29 30 31 32 32 33 34 34 35 36 36 36 36 37 37 37 37 37
13 14 14 14 14 14 14 14 15 16 16 16 16 15 14 15 17 20 22 23 25 27 28 29 30 32 33 33 34 35 36 36 37 37 38 39 40 41 41 41 41 41 41
16 17 17 17 17 17 17 16 16 17 17 18 18 17 17 17 18 19 21 24 26 27 29 30 31 33 34 36 37 37 38 39 40 40 40 41 42 43 44 45 45 46 46
20 20 21 21 20 19 18 18 18 18 18 19 19 19 19 19 19 19 21 23 24 25 27 30 32 33 35 36 37 38 39 40 41 42 42 43 44 45 46 47 48 49 50
23 23 23 24 22 22 21 21 20 20 20 21 21 21 21 21 21 21 22 23 24 26 27 29 31 33 34 36 37 38 40 41 42 44 44 46 47 48 49 50 51 52 53
24 25 24 23 23 25 24 22 22 22 23 23 24 24 25 25 25 26 26 27 28 29 30 31 33 34 36 37 38 40 42 43 45 46 47 49 50 51 53 54 55 57 58
26 26 25 25 25 25 26 25 25 24 25 25 26 27 28 28 29 31 31 32 33 34 35 36 37 38 40 41 43 44 46 47 49 51 52 53 55 56 57 59 60 62 63
26 26 27 27 26 26 26 26 27 27 27 28 29 30 31 32 33 34 36 37 38 39 40 41 42 43 44 45 47 49 50 52 54 56 57 59 60 61 63 64 65 67 68
29 29 28 28 29 29 28 28 29 29 29 30 31 33 34 35 37 38 39 40 42 43 44 46 47 48 50 51 53 54 56 58 59 61 62 64 66 67 68 69 70 72 73
31 30 30 30 29 30 30 30 30 31 31 32 33 35 36 38 39 41 42 44 45 47 48 50 51 52 54 56 58 59 61 63 65 66 67 69 71 72 73 74 75 76 77
31 31 30 31 31 31 31 32 32 33 34 35 36 37 39 40 41 43 45 47 49 50 52 53 54 56 58 59 61 63 64 66 68 69 71 72 73 74 75 76 77 78 78
32 32 32 33 33 33 33 33 35 36 37 38 39 40 42 43 44 46 48 50 52 54 55 56 58 60 61 63 64 65 67 68 70 71 73 74 75 76 76 77 77 77 77
34 34 34 34 35 35 36 37 39 40 41 42 43 44 45 47 48 50 52 54 55 57 58 60 61 62 64 65 66 67 68 69 71 72 73 73 74 74 74 74 74 74 74
36 36 36 37 38 38 40 42 43 44 45 46 48 49 50 52 54 55 57 58 59 59 60 62 63 64 65 66 66 67 68 69 70 71 70 70 71 71 71 70 70 69 68
39 39 40 41 42 43 45 46 47 49 50 51 53 54 55 56 58 58 60 61 61 62 62 63 64 64 65 66 66 66 67 67 67 67 67 67 66 65 65 64 64 63 62
43 43 44 45 47 48 49 50 52 54 55 56 57 57 58 59 61 61 62 62 63 63 63 64 65 64 65 65 65 65 64 63 63 63 62 61 60 59 59 58 57 57 57
46 47 48 50 51 52 53 55 57 58 59 60 60 60 60 61 62 63 63 63 63 63 63 63 63 64 63 63 62 61 61 60 59 58 57 56 54 53 52 51 50 50 49
49 51 52 53 54 55 57 58 59 59 60 60 60 61 61 62 62 63 62 62 62 62 62 61 61 61 61 61 59 58 57 56 54 52 51 49 47 46 45 45 44 43 42
51 53 53 54 55 56 57 59 59 59 61 61 61 62 62 62 61 61 61 61 60 60 60 60 59 58 57 55 54 52 50 49 47 45 44 42 42 41 40 39 38 37 37
51 52 54 56 57 57 58 59 59 60 61 62 62 62 61 60 60 59 58 58 58 57 56 55 53 51 50 48 47 46 43 40 39 38 37 38 37 37 36 35 35 34 34
50 52 53 56 57 58 58 58 59 60 61 61 60 59 58 57 56 55 54 53 51 50 48 47 45 44 43 42 40 38 35 33 31 32 32 33 34 34 33 33 33 33 33
50 52 54 56 57 57 58 58 58 59 58 57 55 54 53 51 49 48 47 45 44 42 40 39 37 36 35 34 31 30 29 28 28 27 27 29 31 31 32 31 31 32 32
49 51 53 54 55 56 56 56 55 54 52 50 48 47 45 43 42 40 39 39 37 36 34 31 29 27 26 24 23 22 22 24 26 26 26 27 29 30 32 32 32 31 31
48 49 51 51 52 53 52 51 50 48 46 45 42 41 38 37 34 33 32 31 30 28 26 24 21 19 18 18 18 18 19 20 22 25 27 28 28 29 31 33 32 32 31
45 46 46 47 47 47 45 44 42 41 39 36 34 32 31 29 27 26 24 23 22 20 18 17 15 14 14 14 15 17 18 20 22 24 26 27 28 28 28 30 30 29 29

GEFSMA_500_meanwind_054.txt.gz
Wind_Speed
13 13 13 13 14 14 15 15 14 14 15 15 15 16 16 16 16 16 16 16 16 16 17 17 18 19 20 21 23 24 25 25 26 27 28 29 30 31 31 31 32 32 32
15 16 16 17 17 18 18 18 17 17 18 18 18 18 17 17 17 17 17 17 17 17 18 19 20 21 22 23 24 26 27 27 28 29 30 32 33 33 34 34 35 35 35
18 19 20 20 21 21 21 21 20 20 21 21 20 20 19 19 18 18 18 19 19 19 19 21 22 23 24 25 26 27 28 29 30 30 31 32 33 34 35 35 36 36 37
21 22 23 24 25 25 25 25 24 23 24 23 22 22 22 21 20 20 20 21 21 21 21 22 23 24 25 26 28 29 30 31 32 32 33 33 35 35 36 37 38 39 39
24 25 26 28 28 27 27 27 27 27 26 25 25 24 24 24 23 22 23 23 24 24 24 25 26 27 28 29 30 31 32 33 34 35 36 36 37 37 38 39 40 41 41
28 28 29 29 30 28 28 28 28 28 28 27 27 27 26 26 25 25 26 26 27 28 29 29 31 31 32 33 34 35 35 36 38 39 40 41 41 42 43 44 44 45 46
30 32 31 31 31 30 30 30 28 28 28 27 27 29 29 29 29 29 29 30 30 32 33 34 36 36 37 38 39 39 39 41 42 43 44 45 46 47 48 49 50 50 51
33 33 31 31 30 29 27 26 27 28 27 28 29 30 31 31 31 32 32 33 34 36 37 38 40 41 41 42 43 44 45 46 47 48 49 50 51 52 53 54 55 55 56
34 32 29 29 28 28 27 27 27 28 28 29 30 32 33 33 33 34 35 37 38 39 41 42 43 44 45 47 48 49 49 50 51 53 54 55 56 57 58 59 60 61 62
33 30 29 28 29 29 29 29 28 28 30 30 31 32 33 34 35 37 38 39 41 42 44 46 47 48 49 51 52 53 53 55 56 57 58 59 61 62 63 64 64 66 67
32 32 30 28 29 30 30 30 30 30 31 31 32 33 35 36 38 40 41 42 44 45 47 49 50 51 53 54 55 56 57 58 60 61 63 64 65 66 67 68 68 69 70
34 33 31 30 29 29 30 30 32 32 32 32 33 36 38 39 41 42 44 46 48 49 50 52 53 55 57 58 59 60 61 63 64 66 67 68 70 70 71 71 72 72 73
37 35 32 32 30 30 31 33 34 34 35 35 37 39 41 43 44 46 47 49 51 53 54 56 58 59 61 62 64 64 66 67 69 70 71 72 73 73 73 74 74 74 73
40 37 36 35 33 33 35 35 37 38 38 40 41 42 44 46 48 49 51 53 55 57 59 61 62 64 66 66 67 68 69 70 72 73 73 74 74 74 74 73 72 71 71
43 42 42 42 38 38 39 39 40 41 42 43 44 46 48 50 52 53 55 57 59 61 63 66 67 69 70 70 70 71 72 72 73 73 73 73 73 72 72 70 69 68 67
47 47 46 45 43 42 43 44 44 46 47 47 49 51 52 54 56 57 60 62 63 65 67 69 71 72 71 71 71 71 71 71 72 72 72 71 70 69 67 66 65 64 63
48 48 47 47 46 47 47 47 47 48 50 51 53 55 56 57 59 61 63 64 66 67 69 69 69 69 68 68 68 68 68 68 68 67 66 66 65 63 62 61 59 58 57
46 47 47 48 48 48 48 48 49 51 53 55 56 57 58 60 62 64 65 67 67 66 65 64 64 64 63 63 62 62 62 61 61 60 59 58 57 57 55 53 52 52 51
45 46 47 48 49 49 50 51 53 55 57 58 59 60 61 63 63 63 63 62 61 59 59 58 57 57 57 56 55 55 55 55 54 53 51 50 49 48 46 45 44 44 43
45 46 47 48 50 51 52 53 55 56 57 59 60 60 60 61 60 58 56 55 55 54 53 52 52 51 51 51 50 50 49 48 46 45 43 42 40 39 38 38 38 38 38
45 46 46 48 49 51 52 54 56 57 58 58 58 57 56 56 54 53 52 50 48 47 47 46 45 45 45 44 43 42 41 39 38 37 36 36 34 34 34 33 33 33 34
45 45 46 47 49 50 52 53 54 54 54 54 53 53 52 50 48 46 45 43 42 41 40 40 39 38 37 36 36 35 34 32 31 31 30 30 30 30 30 30 31 32 34
44 45 46 48 49 50 51 51 51 50 50 50 48 47 46 44 42 41 39 37 36 34 33 33 32 31 31 31 30 29 28 27 27 26 25 26 27 28 29 31 32 33 34
42 43 44 46 47 47 48 48 47 47 47 45 44 43 41 38 36 34 32 30 29 28 27 26 26 26 26 25 25 24 24 24 24 24 24 24 26 28 30 31 32 32 32
40 41 42 43 43 43 44 44 43 42 40 38 36 33 31 28 26 24 23 22 21 20 20 21 21 21 20 20 21 21 21 21 22 24 24 25 26 28 29 30 31 30 30
36 37 38 38 39 39 38 37 35 33 31 28 25 23 21 18 17 16 16 15 15 15 16 16 16 16 17 18 19 19 20 21 22 23 24 25 25 25 26 27 27 28 27

GEFSMA_500_meanwind_060.txt.gz
Wind_Speed
11 12 13 13 13 14 15 16 16 18 19 18 18 17 18 18 17 16 15 15 15 14 14 14 15 16 17 17 18 19 19 19 20 20 21 22 22 23 24 24 25 25 26
13 14 15 16 16 17 18 19 20 21 21 21 21 21 21 22 21 20 17 17 17 17 17 16 17 18 19 19 20 20 21 22 22 23 23 24 25 26 26 27 27 28 28
15 16 17 18 19 20 21 22 24 24 24 24 24 25 24 25 25 24 22 20 20 20 20 20 20 20 21 22 22 23 23 24 25 26 27 28 28 29 29 30 31 31 32
17 18 20 21 22 24 25 26 27 27 27 27 27 27 27 28 27 26 25 25 24 24 24 24 24 24 24 25 26 27 27 28 28 30 31 32 33 33 34 35 35 36 36
20 21 23 24 25 26 27 29 31 31 30 30 30 29 30 30 30 29 29 29 28 27 26 27 27 28 28 29 30 31 31 32 33 35 35 36 37 38 38 39 40 41 41
24 25 26 27 28 30 31 32 33 33 31 31 30 30 31 30 31 31 32 32 31 31 30 30 30 31 32 33 34 34 36 37 38 39 40 41 42 43 43 44 45 45 46
27 28 29 31 32 32 33 34 33 32 31 30 30 30 30 30 29 29 31 32 33 34 34 34 34 35 36 37 38 39 40 42 43 44 45 46 47 48 48 49 50 51 51
30 32 33 33 34 34 34 33 32 32 30 29 29 30 31 30 29 30 32 33 33 34 35 37 38 39 41 42 43 44 44 45 47 49 50 51 51 52 53 54 55 55 56
33 34 34 34 34 33 32 30 30 30 31 31 31 31 31 31 31 31 32 33 34 36 38 39 41 43 45 47 48 48 49 50 51 53 55 56 56 57 58 59 59 59 60
35 34 33 33 33 33 31 29 29 29 31 30 30 30 31 32 33 33 34 35 36 38 40 42 44 46 49 51 53 53 54 55 56 58 59 60 61 62 63 63 63 64 65
35 34 34 33 32 31 30 31 30 31 31 31 31 32 32 34 35 36 37 39 40 42 44 45 48 50 52 54 56 58 59 60 61 63 64 64 65 66 67 67 68 68 68
35 35 34 32 32 31 32 32 33 33 34 33 34 35 35 37 38 40 41 43 45 47 49 51 53 54 56 58 60 62 63 65 66 66 67 68 69 70 71 71 72 72 72
35 35 34 33 33 33 34 35 36 36 35 37 38 38 39 40 41 43 45 47 49 51 53 54 56 58 60 61 62 64 65 66 67 68 70 71 71 72 73 74 74 74 73
35 34 34 35 36 35 36 37 38 39 39 40 41 41 43 43 45 47 49 50 52 54 56 58 60 61 62 63 64 65 66 66 66 67 69 70 71 71 73 73 73 73 73
38 37 37 37 38 39 40 40 41 42 42 42 43 45 46 47 48 50 52 54 56 57 59 61 62 64 64 63 63 64 65 66 66 67 69 70 71 71 70 69 69 69 68
40 39 39 40 41 42 43 43 43 44 45 46 47 48 49 50 51 53 54 55 56 57 60 61 61 61 62 63 63 64 65 65 65 65 65 65 65 65 65 65 64 63 63
42 42 42 43 44 46 46 45 45 47 47 48 48 49 51 51 52 53 54 55 55 55 56 57 59 60 61 60 60 61 61 62 61 60 59 59 59 59 58 58 58 57 55
44 44 44 45 46 47 47 46 47 48 50 51 51 52 52 53 53 53 54 54 55 55 55 57 58 58 58 59 58 58 57 56 54 53 53 52 52 51 50 50 49 48 47
45 45 46 47 48 47 47 48 49 50 51 51 52 53 53 53 54 54 55 55 56 56 57 57 56 56 56 55 53 52 51 50 49 48 47 45 45 45 44 43 42 42 41
46 46 47 47 47 48 48 49 49 51 51 52 53 54 54 55 55 54 54 55 55 55 54 54 52 52 51 49 48 46 45 44 43 41 41 40 40 39 38 38 37 36 36
45 45 45 45 46 47 48 49 50 51 52 53 53 53 53 53 52 52 51 50 50 49 48 47 45 44 42 41 40 38 37 37 37 36 35 35 34 35 34 33 33 33 33
43 43 43 44 45 46 47 48 49 50 51 51 50 49 49 48 47 47 45 45 43 41 39 37 36 35 34 33 32 32 31 30 30 30 30 31 32 31 31 31 31 31 31
39 40 41 42 43 44 45 47 47 47 46 45 44 43 42 41 39 37 35 33 31 29 29 29 28 26 26 25 26 26 26 26 27 27 27 28 29 29 29 29 29 30 30
37 38 39 40 41 42 42 42 41 40 39 37 37 35 33 31 29 27 26 24 22 21 20 20 20 20 20 21 22 23 23 23 24 25 25 25 26 27 28 28 28 28 27
34 35 36 37 38 38 37 36 34 33 32 31 29 26 23 21 20 19 18 17 16 15 15 16 17 18 19 20 21 21 21 22 22 23 23 24 25 26 27 28 27 26 25
31 31 32 32 32 31 30 29 28 27 25 22 20 17 16 15 15 14 13 13 12 13 14 15 16 17 18 19 20 20 20 21 21 21 22 23 24 25 25 26 25 25 24

GEFSMA_500_meanwind_066.txt.gz
Wind_Speed
11 10 10 10 10 10 11 11 13 14 15 16 17 17 17 17 17 17 17 17 17 17 16 16 16 17 18 18 19 19 20 20 21 22 23 23 24 24 25 25 25 26 26
12 12 11 11 12 12 13 14 15 17 18 20 20 21 21 20 20 21 20 20 20 20 20 20 20 20 21 21 22 22 22 23 24 24 25 26 27 28 28 28 28 29 29
14 13 13 13 14 14 16 17 18 20 22 23 24 24 24 24 24 24 23 23 23 22 22 23 23 23 23 24 24 25 25 26 26 27 27 28 29 30 31 32 32 33 33
15 15 15 15 16 17 18 20 21 22 23 24 26 26 26 26 25 24 25 25 25 25 24 25 25 26 27 27 27 28 28 29 29 30 31 31 33 34 35 36 36 37 37
17 17 17 17 18 19 21 21 22 23 24 25 25 26 26 26 25 25 25 25 26 26 27 27 28 28 29 30 30 31 31 32 33 34 35 36 37 38 39 40 41 41 41
18 18 19 20 21 22 22 23 24 25 25 26 26 26 25 26 26 26 26 26 26 27 29 30 30 30 32 33 34 34 35 36 37 38 39 40 41 42 43 44 45 46 47
20 20 21 22 22 23 24 24 25 26 26 26 26 26 26 26 26 27 27 27 28 28 30 32 33 34 35 35 37 38 39 39 41 42 43 44 45 46 47 48 49 50 51
23 23 23 24 24 24 24 26 27 28 28 27 27 27 26 27 28 27 28 29 30 31 33 34 35 36 38 40 40 41 41 43 44 45 47 49 50 50 51 52 52 53 55
23 22 22 24 25 25 26 26 26 26 26 27 28 28 27 27 29 29 30 30 32 34 35 36 37 38 39 41 42 44 46 47 48 50 52 53 55 55 56 56 57 57 58
22 22 22 23 24 25 26 27 26 25 25 25 25 26 28 29 31 31 32 33 34 36 37 38 39 41 42 44 45 47 49 50 51 53 55 57 59 60 60 61 61 61 61
21 20 19 19 21 23 24 25 25 26 27 26 26 28 30 31 33 34 35 36 37 38 39 41 43 45 47 48 50 51 52 54 55 57 59 60 62 63 63 64 64 64 65
20 20 20 20 23 25 26 27 27 28 28 28 30 31 33 34 35 37 38 38 40 41 43 44 46 48 50 52 54 55 57 58 60 61 62 63 63 63 64 65 66 66 67
24 24 24 25 26 28 29 30 31 31 31 31 33 34 35 36 37 39 40 42 43 45 46 48 49 51 53 54 56 57 59 61 62 62 63 63 63 64 65 66 66 67 68
28 28 29 30 30 31 32 32 32 32 33 33 35 36 37 39 41 42 43 45 46 48 50 51 53 54 55 56 57 58 60 62 64 64 65 65 65 66 67 68 67 66 66
30 31 32 32 33 32 32 31 32 33 35 37 38 40 41 43 44 45 46 47 49 50 52 54 55 56 58 59 60 61 63 64 64 65 67 67 67 67 66 64 63 63 63
33 33 33 34 34 34 34 35 36 37 38 40 41 43 44 45 47 47 49 50 52 54 55 56 57 58 60 61 62 63 63 64 64 64 63 63 62 62 61 60 60 59 59
33 34 35 35 36 36 37 38 38 39 41 42 44 44 45 46 48 50 51 52 53 54 56 57 58 59 61 62 62 61 61 61 61 61 60 59 58 57 56 56 56 55 55
36 37 37 38 38 38 39 40 40 41 43 44 45 45 46 48 49 51 52 53 54 55 55 55 56 57 57 57 58 57 57 56 56 56 55 54 53 52 51 51 50 50 50
38 38 39 39 39 40 40 41 41 42 43 44 45 46 47 48 49 49 50 50 51 51 51 52 52 52 51 51 50 50 50 49 49 48 47 46 45 43 43 43 43 43 43
39 40 40 40 39 40 40 40 41 41 42 43 44 44 45 45 45 45 44 44 45 45 45 44 44 44 44 44 43 42 42 41 40 40 39 37 36 36 37 37 38 38 38
39 39 38 38 38 38 38 39 39 40 40 41 41 41 41 40 40 40 39 39 38 37 37 37 36 35 34 33 33 33 33 32 31 31 31 30 30 31 32 32 33 33 33
37 37 36 36 36 36 37 37 37 38 38 37 37 36 36 35 35 34 33 32 31 30 29 28 26 26 26 26 25 25 25 24 24 25 25 25 25 26 27 28 29 30 30
34 34 33 34 34 34 35 35 35 34 33 32 31 31 30 29 27 26 26 25 24 22 22 21 21 21 22 22 22 22 22 22 21 22 22 23 24 24 25 26 27 26 25
31 30 31 31 32 32 32 31 29 28 28 27 27 26 24 23 22 22 21 20 19 19 18 19 19 19 19 19 19 19 19 20 21 21 21 21 22 22 23 23 23 22 22
27 28 28 29 28 27 27 26 26 25 24 24 23 22 21 20 20 19 19 18 18 17 17 17 18 18 18 18 18 19 19 19 20 20 20 20 20 21 21 21 20 20 19
25 25 25 25 24 24 24 23 23 22 21 20 19 19 19 19 19 18 18 17 17 17 17 17 18 19 19 18 18 18 18 19 19 19 18 18 18 19 19 19 19 19 19

GEFSMA_500_meanwind_072.txt.gz
Wind_Speed
16 16 16 15 15 15 14 14 13 12 12 13 14 14 15 16 17 18 19 19 19 20 20 20 20 20 21 21 21 22 22 23 23 23 24 24 25 25 26 26 26 27 27
17 17 17 17 17 16 16 15 15 14 14 15 16 17 18 19 19 20 21 21 21 22 22 22 23 23 23 24 24 25 25 26 26 27 27 27 28 28 29 29 30 30 31
18 19 19 19 18 18 18 17 17 17 17 18 19 19 20 20 21 22 22 22 23 23 23 23 24 24 24 26 26 26 26 27 28 29 29 30 31 31 32 32 33 33 34
20 20 21 21 21 20 20 19 19 19 20 20 21 21 21 22 23 23 24 24 24 24 24 24 24 25 26 27 28 28 29 30 31 31 32 33 34 35 35 36 37 37 38
22 22 22 22 22 21 21 21 21 21 22 22 22 22 23 23 24 25 25 24 25 25 25 25 25 26 27 28 29 30 32 33 34 35 36 36 37 38 39 40 41 42 42
23 24 24 23 23 22 22 23 23 23 24 25 25 25 25 26 26 26 25 26 27 26 27 27 28 29 30 31 32 33 34 35 37 38 39 40 41 42 43 45 45 46 46
25 25 25 25 25 25 24 25 25 25 26 26 26 26 26 27 27 28 28 28 28 28 29 30 30 31 31 32 34 35 36 38 40 41 43 44 46 46 48 49 49 50 50
27 27 27 27 27 26 26 26 27 27 27 27 27 27 27 27 29 30 30 30 30 31 31 32 32 33 34 35 36 38 39 40 42 43 45 47 48 49 51 53 53 53 53
30 29 29 29 28 28 27 26 27 27 27 27 28 28 28 29 29 30 31 32 32 32 33 34 34 36 37 38 39 41 43 44 45 47 48 50 51 53 54 56 56 56 57
31 31 29 29 28 27 26 24 24 25 26 26 27 28 29 30 30 31 31 33 34 35 36 37 38 39 40 41 43 44 46 47 48 50 51 52 53 55 56 57 58 58 59
29 30 29 27 25 24 24 24 24 24 26 27 28 29 31 32 33 34 35 35 37 38 38 40 41 42 44 45 45 47 49 50 51 53 54 54 55 57 59 60 60 61 62
27 26 26 26 24 23 24 24 25 26 27 28 30 31 33 34 35 37 38 39 40 41 42 43 45 46 47 48 49 50 52 53 54 55 55 56 57 59 62 64 64 64 65
25 24 24 24 24 24 25 26 27 28 29 31 32 33 35 36 38 39 41 42 43 44 45 46 47 48 50 51 52 54 55 55 56 57 58 59 60 62 63 64 65 66 67
21 21 21 23 24 25 26 27 27 29 31 33 34 36 37 38 40 41 43 44 46 46 47 48 49 51 52 54 55 56 57 57 58 59 60 61 62 62 62 63 63 64 65
20 21 23 24 25 26 28 29 29 31 33 34 35 36 38 40 41 42 43 44 46 47 48 49 51 52 54 55 56 57 58 59 59 60 60 60 61 61 61 61 61 61 61
21 21 22 24 26 28 29 31 32 34 35 36 37 38 39 40 41 42 43 45 46 47 49 50 51 53 54 54 55 55 56 56 57 57 57 58 58 59 59 59 58 56 56
23 24 26 28 29 30 32 33 34 35 36 37 37 38 39 40 41 42 43 44 46 47 48 49 50 51 52 52 53 53 54 54 54 54 54 54 55 55 55 54 52 52 51
25 27 28 30 31 33 34 35 35 36 37 38 38 38 39 40 41 42 42 43 44 45 46 47 47 48 49 49 49 49 49 49 49 48 47 47 46 46 46 46 45 45 44
28 29 30 32 33 34 35 35 36 36 37 37 37 38 38 39 39 39 40 41 41 42 42 42 42 42 42 42 42 42 42 41 40 39 38 37 37 36 36 37 38 38 39
29 31 32 33 33 34 34 34 35 35 35 35 36 36 36 37 37 37 38 38 39 39 38 38 37 36 35 35 34 34 34 34 33 33 32 32 31 30 30 31 32 33 34
30 31 32 33 33 33 32 32 33 33 33 34 34 34 34 34 34 34 35 35 35 35 34 33 32 31 30 29 29 29 29 29 29 29 29 28 28 28 28 28 29 29 30
30 30 30 30 30 30 30 31 31 32 32 31 31 31 31 31 32 32 32 32 32 31 30 29 28 27 27 27 26 26 26 25 26 25 25 25 24 25 25 25 25 25 26
29 28 29 29 29 29 29 30 30 30 29 29 29 29 29 29 29 29 28 28 27 27 26 26 25 25 25 24 24 24 24 23 23 23 23 23 22 22 21 21 22 22 22
27 27 27 27 27 27 27 28 28 27 27 27 27 26 26 26 25 25 25 24 24 23 23 23 23 23 22 22 21 21 21 22 21 21 20 20 19 19 19 20 20 21 21
25 25 25 25 25 25 25 25 25 25 25 25 24 23 23 23 22 22 21 21 21 21 21 21 20 20 20 20 19 19 19 20 20 19 18 18 18 19 19 19 20 20 21
22 22 22 22 22 22 22 22 22 22 22 21 21 20 20 19 19 19 19 19 19 19 19 19 18 18 18 18 17 18 18 18 18 17 17 17 17 18 18 19 19 20 20

GEFSMA_500_meanwind_078.txt.gz
Wind_Speed
20 19 19 19 18 18 18 18 18 17 18 17 17 17 17 17 18 18 18 18 19 19 20 20 20 20 20 21 21 22 22 22 22 22 23 23 24 24 25 25 26 26 27
21 21 20 20 19 19 20 19 19 20 19 19 19 18 19 19 20 20 20 20 21 21 21 21 21 21 22 23 23 24 24 24 25 25 25 26 27 28 28 29 29 30 30
22 22 21 21 21 21 22 21 22 22 22 21 21 21 21 21 21 22 22 22 22 23 23 23 23 23 23 24 24 25 26 26 27 28 29 29 30 31 31 32 33 33 34
23 23 23 23 23 23 24 23 24 23 23 24 24 24 23 23 22 23 23 24 24 24 24 24 25 25 25 25 26 27 28 29 30 30 31 32 33 34 35 36 36 37 38
25 25 25 24 24 25 25 25 25 25 25 25 25 25 25 25 25 25 25 26 26 27 27 27 27 28 28 28 28 29 31 32 32 33 34 35 37 37 38 39 40 41 41
27 27 27 26 26 27 27 26 26 27 27 26 26 26 26 27 27 27 28 29 29 29 29 29 29 29 30 31 32 33 34 35 36 37 38 39 41 41 42 43 44 45 45
29 30 29 29 28 28 28 28 28 28 28 27 28 28 29 29 29 29 30 31 31 31 31 31 32 33 34 34 35 35 36 37 38 40 42 43 44 45 46 46 46 48 49
31 31 31 30 30 29 30 30 30 30 29 29 29 30 30 30 30 30 31 31 32 33 33 33 34 35 36 37 38 38 39 39 40 42 44 46 47 49 49 50 51 52 52
31 32 32 31 30 30 30 30 30 30 30 30 30 30 30 30 30 30 32 33 34 34 35 35 35 36 37 39 40 41 42 43 44 45 47 48 49 50 52 54 55 55 55
29 30 31 32 31 32 31 30 31 31 31 30 29 30 31 32 32 32 33 34 35 35 36 36 37 38 40 41 42 44 45 47 48 49 50 51 52 54 55 55 56 56 57
31 31 32 32 33 34 33 32 32 31 31 32 32 32 32 33 33 34 34 35 36 37 38 39 40 40 42 44 45 47 48 49 50 52 52 54 55 55 56 56 57 59 59
30 30 29 29 29 30 30 31 32 31 32 32 32 32 32 33 34 35 36 37 38 39 40 41 42 44 46 47 48 49 50 51 52 53 54 55 56 57 57 57 58 59 60
27 27 26 26 27 28 28 29 32 33 32 32 32 33 34 35 35 37 38 39 41 42 43 44 46 47 48 49 49 50 51 53 54 54 55 56 57 57 58 59 59 60 60
23 23 24 24 25 25 27 29 30 30 30 31 32 33 35 36 37 39 40 41 42 44 44 46 47 48 49 50 51 52 53 54 54 55 55 56 57 57 57 58 59 59 60
21 20 21 22 22 24 25 26 28 29 30 31 32 34 36 37 39 40 41 42 44 45 46 46 47 48 49 50 51 51 52 53 53 53 53 53 54 54 54 55 56 56 56
21 21 21 22 23 24 26 27 27 29 30 31 33 35 37 38 40 41 42 43 45 46 47 47 47 48 49 49 50 50 50 50 50 51 51 50 50 50 50 51 52 52 51
22 22 23 24 24 25 27 28 29 30 31 32 34 36 37 38 39 40 41 43 44 44 45 45 46 47 47 48 48 49 49 49 48 47 47 46 46 46 46 45 45 45 44
24 24 25 26 27 28 28 30 31 32 33 34 35 37 37 38 39 40 41 41 42 42 43 43 44 45 45 46 46 46 46 45 44 44 43 42 42 41 41 40 39 39 39
26 26 27 28 28 29 30 31 32 33 34 35 36 37 37 38 39 39 39 39 40 40 40 41 42 43 43 43 43 43 42 40 40 39 38 37 37 37 36 35 35 34 34
26 27 28 28 29 30 31 31 32 33 34 34 35 36 37 37 37 37 37 37 37 37 38 38 39 39 39 39 39 37 36 35 34 34 33 33 33 32 31 31 31 31 31
26 27 28 29 29 30 30 31 32 33 33 33 34 34 35 35 35 35 35 35 35 35 35 35 35 35 35 34 33 32 31 30 30 30 29 29 29 29 28 28 28 28 28
28 28 29 29 29 30 31 31 31 31 31 32 32 32 33 33 32 32 33 33 32 32 31 31 31 30 30 29 28 28 27 26 26 26 26 26 25 25 25 25 25 25 25
28 28 28 28 29 29 30 30 30 30 30 30 30 30 30 30 30 31 31 30 29 28 27 27 26 26 25 25 25 24 23 23 23 23 23 23 22 22 22 22 22 23 23
26 26 26 27 27 28 28 28 28 28 28 28 28 28 28 28 29 28 27 27 26 25 24 24 24 23 22 22 21 21 20 20 20 20 20 20 20 19 19 20 20 21 21
24 25 25 26 26 26 26 26 26 26 26 26 26 25 26 26 25 25 24 23 23 22 22 22 21 21 20 20 19 19 18 18 18 18 18 18 18 18 18 18 19 20 20
23 24 24 24 24 24 24 24 24 24 23 23 23 23 23 23 22 21 21 20 20 20 20 19 19 19 18 17 17 16 16 17 16 16 17 17 17 17 17 17 18 19 19

GEFSMA_500_meanwind_084.txt.gz
Wind_Speed
24 23 23 22 20 19 19 19 19 19 19 18 17 17 18 18 18 16 16 17 17 17 17 17 17 18 19 19 19 20 20 20 20 21 21 22 22 23 24 25 25 26 26
25 23 24 23 21 20 20 20 20 20 20 19 19 19 19 20 20 20 19 19 19 19 19 19 20 21 21 21 21 21 21 21 22 22 23 23 24 25 27 27 28 29 29
25 25 25 24 22 22 22 22 22 21 22 21 21 21 21 22 23 23 22 21 22 21 20 21 21 21 22 22 23 24 24 24 24 25 26 26 27 28 29 30 31 31 32
25 26 26 25 24 24 23 23 23 22 23 23 23 23 23 23 24 25 25 25 23 22 23 23 24 25 25 25 26 26 27 27 27 28 28 29 30 32 33 33 35 36 36
25 25 26 27 27 25 24 24 24 24 24 24 24 24 24 24 25 26 26 26 26 25 25 26 27 27 28 28 28 29 30 30 31 32 33 34 35 36 37 37 38 39 40
25 25 26 26 26 25 25 26 26 25 26 26 26 26 25 26 27 28 28 28 28 28 28 29 29 29 30 31 31 32 32 33 34 34 35 36 38 39 40 41 41 42 43
25 25 25 25 26 27 27 28 27 27 28 27 27 27 27 28 29 29 29 29 30 30 30 31 31 32 32 32 33 33 34 35 36 37 38 39 40 42 43 43 44 45 46
24 25 26 27 27 29 29 29 28 28 28 28 28 27 28 28 29 30 30 31 31 31 32 32 33 33 34 34 35 36 37 38 39 40 41 42 43 44 46 47 48 49 50
25 25 26 26 28 29 30 31 30 30 30 29 29 30 30 31 31 31 30 31 33 33 34 35 35 36 37 37 38 39 40 41 41 43 43 45 46 47 48 50 51 52 52
26 26 27 27 28 29 29 30 31 32 31 30 31 31 32 32 31 31 32 34 35 36 36 36 37 37 38 38 39 40 42 43 44 45 46 47 48 49 50 51 52 53 54
24 25 26 27 28 29 29 29 30 31 31 31 32 33 33 33 33 34 34 34 35 36 38 38 38 39 39 40 41 42 44 45 46 47 49 49 50 51 52 52 53 53 54
24 25 26 27 28 29 30 30 30 30 30 31 32 33 33 34 36 35 36 36 36 37 38 39 40 41 41 42 43 45 46 48 48 49 50 51 52 52 52 53 53 54 54
24 24 26 27 28 29 30 30 31 31 32 32 34 34 34 35 35 36 37 37 37 38 38 39 41 42 43 44 45 47 48 49 50 51 51 52 53 52 52 53 53 53 53
23 23 24 26 27 28 29 30 30 29 30 31 31 32 33 34 34 35 36 37 38 39 39 40 42 43 45 46 47 47 48 49 50 50 51 51 52 52 52 52 52 50 49
23 23 23 23 24 25 25 25 25 26 26 27 28 29 30 33 34 35 37 37 39 41 41 41 43 44 45 46 46 47 48 48 48 49 49 49 49 50 49 48 47 46 45
25 25 25 23 22 22 22 22 23 25 26 26 27 29 30 32 34 35 36 38 40 41 42 43 43 44 45 46 46 47 47 46 47 47 47 47 47 46 45 44 43 42 43
25 26 25 24 23 23 23 23 24 25 26 27 28 30 31 32 34 35 36 38 39 40 41 41 42 44 45 46 46 45 45 45 44 44 44 43 42 41 41 40 40 40 41
24 24 24 25 25 26 26 27 27 28 29 29 31 32 33 34 35 36 37 38 39 39 40 41 42 43 43 43 43 43 43 42 40 39 39 37 37 37 37 37 38 38 38
25 26 26 26 27 27 28 29 30 30 30 31 33 33 34 35 36 36 37 38 38 39 40 41 41 41 41 41 40 40 39 37 35 34 33 33 33 34 34 34 34 34 33
28 28 28 28 28 29 29 30 31 31 32 32 33 34 34 35 36 36 36 37 38 38 39 39 39 39 38 38 37 35 33 32 31 31 30 30 30 31 31 31 31 30 29
29 29 30 30 30 29 29 30 31 31 32 33 33 34 34 35 35 35 35 36 36 37 37 37 36 36 35 34 32 30 29 28 28 28 27 27 28 28 28 28 28 27 27
29 29 28 28 28 28 29 30 31 32 32 33 33 33 34 34 34 34 34 35 35 35 34 34 33 32 31 29 28 26 25 25 25 25 25 25 25 25 25 25 25 25 25
26 26 27 27 27 28 29 30 30 31 32 32 32 32 32 32 33 33 33 33 33 32 32 31 30 29 27 26 25 24 24 23 23 22 22 23 23 23 24 24 24 24 24
24 24 24 25 26 28 29 30 30 30 30 31 31 31 31 31 31 31 31 30 30 29 29 28 27 25 24 23 22 22 21 21 20 20 20 21 21 21 22 22 23 23 23
23 24 24 25 26 27 27 28 28 29 29 29 29 29 29 29 29 29 28 28 27 27 26 25 24 22 21 20 20 19 18 18 18 18 18 19 19 19 20 20 20 21 21
21 22 23 24 24 24 25 26 26 27 27 26 27 27 27 27 27 26 26 25 25 24 22 21 21 20 19 19 18 17 17 17 16 16 17 17 17 17 17 17 18 19 19

GEFSMA_500_meanwind_090.txt.gz
Wind_Speed
25 24 23 23 22 22 21 20 20 20 18 17 17 16 15 15 15 16 16 15 15 15 15 15 15 15 15 15 15 15 16 17 17 18 18 19 20 20 21 22 23 24 25
26 26 25 24 24 23 23 22 21 20 19 19 18 17 17 16 16 17 17 17 17 17 17 17 18 18 18 17 18 18 18 19 19 20 21 22 23 23 24 24 26 26 27
27 27 27 26 24 24 24 23 21 21 21 21 19 18 18 18 18 18 18 19 19 20 20 20 20 20 20 20 20 21 21 22 22 23 24 24 25 26 27 28 29 30 31
27 28 28 27 25 24 24 24 23 22 21 20 20 20 20 20 20 20 20 20 21 21 22 22 21 21 22 22 23 23 23 24 25 26 27 28 28 30 30 31 32 33 34
27 27 27 27 27 26 24 24 24 22 22 21 21 21 21 21 21 21 21 21 22 22 23 23 23 23 24 24 25 25 26 27 28 28 29 30 31 32 33 34 35 36 37
27 27 27 26 26 25 25 23 23 22 23 23 23 23 22 23 22 23 23 22 23 23 24 24 24 25 26 26 27 28 28 29 29 30 31 33 34 34 35 36 37 39 40
26 25 25 26 24 23 23 23 22 23 24 23 23 24 23 23 24 23 24 24 24 24 25 26 27 27 28 28 29 30 31 32 33 34 35 35 36 37 38 39 40 41 42
23 23 24 23 23 22 21 22 22 22 23 24 24 24 24 24 25 25 26 26 25 26 26 27 28 29 30 31 31 32 33 34 35 36 36 37 38 39 40 41 42 43 44
24 22 20 21 21 21 21 22 23 23 24 25 26 26 26 26 26 26 27 28 28 29 29 29 31 32 33 33 34 34 35 35 36 37 38 39 39 41 42 43 44 45 46
21 21 21 22 21 22 22 23 23 24 24 25 26 27 27 27 27 28 29 29 29 30 31 32 32 33 34 34 35 35 35 36 37 38 39 40 41 42 44 45 46 47 48
22 21 22 22 22 22 23 23 23 24 25 26 27 28 29 29 29 29 29 30 31 31 31 32 32 33 34 35 35 35 36 38 39 39 40 42 43 44 45 46 48 49 50
24 22 21 20 21 21 21 22 23 25 26 27 28 28 29 29 30 29 30 31 30 31 31 32 33 33 34 35 35 36 38 39 40 41 42 43 44 45 46 48 49 50 50
23 23 21 19 20 20 21 22 23 25 25 26 27 28 29 30 30 30 30 29 29 30 31 32 33 35 35 36 37 38 39 40 41 42 43 44 45 46 47 48 48 49 49
21 21 22 21 21 20 21 22 22 23 24 26 27 28 28 29 30 29 28 29 29 30 31 33 33 34 35 36 37 39 40 41 42 42 43 44 45 46 46 47 47 46 45
20 20 21 21 20 20 20 21 22 22 23 24 25 26 27 27 27 27 28 29 29 30 31 32 33 34 36 37 38 39 40 41 42 42 43 44 44 44 44 44 43 42 42
21 21 21 21 20 20 20 19 19 20 21 22 22 23 24 24 24 25 26 27 28 30 31 32 33 35 36 37 38 39 39 40 41 42 42 42 42 41 41 39 39 38 38
22 22 21 20 19 20 20 19 18 18 19 20 20 20 21 23 24 25 25 27 29 30 31 33 34 36 37 37 38 38 39 40 41 41 40 40 39 37 36 35 35 35 35
22 22 21 20 20 20 20 20 19 19 20 20 21 22 23 23 25 25 27 29 30 31 32 33 34 36 36 37 37 38 39 39 38 38 37 36 34 33 33 33 33 32 32
19 20 20 20 20 21 21 21 20 21 21 22 22 23 24 25 27 28 29 30 31 31 32 33 34 35 35 36 37 37 37 36 35 34 33 32 32 31 31 30 30 29 29
19 19 20 20 20 20 20 21 21 22 23 23 24 25 26 27 28 29 30 30 31 32 32 33 34 34 35 35 35 35 34 33 32 30 29 29 29 28 27 27 27 27 28
19 20 20 20 20 20 21 21 22 23 23 24 25 26 27 27 28 28 29 30 31 31 32 32 33 33 33 33 32 32 31 29 28 26 26 26 25 25 25 25 25 25 25
20 20 20 20 21 22 22 23 23 23 23 24 25 26 26 27 28 28 29 30 30 30 31 32 32 32 31 30 29 28 27 26 24 23 23 23 23 23 23 23 23 23 23
19 21 21 22 22 22 23 23 23 23 23 24 25 25 26 27 27 28 28 28 29 30 30 30 29 29 28 27 26 25 24 23 22 22 22 21 21 21 21 21 21 21 20
19 20 20 20 21 21 22 22 21 22 23 24 25 25 26 26 26 27 27 28 28 28 28 27 26 26 25 24 23 22 21 20 20 20 20 20 19 19 18 18 18 18 18
18 19 19 19 19 20 20 21 21 22 23 23 24 24 25 25 25 25 26 26 25 25 25 24 23 23 22 21 20 19 19 19 18 18 18 18 17 17 17 16 16 16 16
17 17 16 16 17 17 18 19 20 20 21 22 22 23 23 23 23 23 23 23 22 22 21 20 20 20 19 18 18 17 17 17 17 17 16 16 15 15 15 14 14 14 14

GEFSMA_500_meanwind_096.txt.gz
Wind_Speed
24 23 24 23 22 22 22 21 20 19 18 17 16 17 17 17 16 16 15 15 14 14 14 14 14 15 15 15 16 16 16 16 17 17 17 18 18 19 19 20 21 22 22
25 25 24 25 24 24 24 23 21 20 20 20 19 18 19 18 18 17 17 16 16 16 16 16 16 17 17 17 17 17 18 18 19 19 20 21 21 22 22 22 23 24 25
26 26 27 26 26 25 25 25 24 22 20 21 21 21 20 19 19 18 18 19 18 18 19 18 18 18 19 18 19 19 19 20 21 21 22 23 23 24 25 26 27 28 29
29 28 29 28 27 27 26 26 25 24 23 22 22 22 21 21 21 20 20 20 20 20 20 20 20 20 20 20 21 21 21 22 23 24 24 25 26 27 28 28 29 30 32
30 31 31 30 28 27 27 26 26 26 25 24 24 23 22 22 23 22 21 21 21 21 21 21 21 21 22 22 22 23 23 24 25 26 27 28 29 29 30 31 32 33 35
31 31 31 31 30 29 28 27 26 26 27 25 25 24 24 24 23 23 23 23 23 23 23 23 22 23 23 24 25 25 26 26 27 29 29 30 31 32 32 33 34 36 37
32 30 30 30 30 30 30 28 26 27 27 27 26 26 26 26 25 24 24 25 24 24 25 25 25 25 25 26 27 27 28 29 30 31 31 32 33 34 35 35 36 37 38
31 29 29 30 31 30 29 29 28 28 26 26 26 27 27 27 26 26 26 26 26 27 27 27 27 27 27 27 28 29 30 31 31 32 33 33 34 35 36 37 38 39 40
31 31 27 27 29 28 28 27 27 28 28 27 26 26 25 25 27 26 26 26 27 28 28 28 29 29 29 30 31 31 32 32 32 32 33 34 35 36 38 39 40 41 42
31 30 29 27 27 28 28 27 26 28 28 27 28 27 26 26 27 26 27 27 28 29 29 30 30 30 30 31 31 31 32 32 33 33 34 35 36 37 39 40 41 42 43
28 28 26 26 27 27 29 28 27 28 29 29 29 28 28 27 27 27 27 28 29 30 30 31 31 32 32 31 31 31 31 32 33 34 35 36 37 39 40 41 43 43 44
26 27 27 27 27 27 26 27 26 27 28 28 28 27 27 27 27 28 29 30 30 30 31 30 31 31 31 31 31 31 32 33 34 35 36 38 39 40 41 43 43 44 45
25 26 25 25 26 26 25 25 26 26 27 27 27 26 27 27 28 29 29 30 31 31 31 31 31 31 31 31 31 32 33 34 35 36 37 39 40 41 42 43 43 44 44
23 23 22 22 23 24 24 24 25 25 25 26 26 26 27 28 29 29 29 29 31 31 31 31 31 30 31 31 32 33 33 34 36 37 38 40 41 41 42 43 43 43 43
22 21 21 22 22 22 23 23 24 24 25 25 26 28 29 29 29 30 30 29 30 30 30 29 29 29 30 31 32 33 34 35 37 38 39 40 41 41 42 42 42 42 41
22 22 22 22 22 23 23 23 23 24 25 26 26 27 28 29 28 29 28 28 28 28 28 27 28 29 29 30 32 33 35 36 37 38 39 39 40 40 41 40 40 38 37
22 23 23 22 22 23 23 24 24 24 24 25 25 25 26 27 27 26 26 25 25 26 27 27 28 29 29 31 33 34 35 36 37 37 38 38 39 39 38 37 35 35 34
23 23 24 24 23 23 23 24 24 24 24 24 24 24 24 25 24 24 25 25 25 26 27 28 29 30 31 33 34 35 36 36 37 38 38 38 37 36 35 33 33 32 31
23 23 24 24 24 24 24 23 23 24 24 24 24 23 23 23 23 24 25 25 26 27 28 29 30 32 33 34 35 36 36 37 37 37 36 36 34 33 32 31 30 30 29
23 23 23 23 23 23 23 23 23 23 23 23 23 22 23 23 24 25 26 26 27 28 29 30 31 32 34 34 35 35 35 35 35 35 34 33 31 30 29 28 28 27 27
22 23 22 22 22 22 22 22 22 22 23 23 23 23 23 24 25 26 27 28 28 29 30 31 32 32 33 33 33 34 34 33 33 32 31 29 28 26 26 26 25 24 24
21 22 23 23 22 22 22 21 21 21 22 23 23 23 24 25 26 27 28 28 29 29 30 31 31 32 32 32 31 31 31 30 29 28 27 26 24 24 23 23 22 22 21
20 21 21 21 22 21 21 21 21 21 21 22 23 24 25 26 26 27 28 28 29 29 30 30 30 30 30 30 29 28 28 26 25 24 23 22 22 21 21 21 20 19 18
19 19 19 20 20 20 20 21 21 21 22 22 22 23 24 25 26 27 28 28 28 28 28 28 28 28 27 26 25 25 24 23 22 21 21 21 20 19 19 18 17 16 16
18 17 17 19 19 20 20 20 21 21 21 22 22 23 24 25 26 27 27 27 27 26 26 26 26 25 24 24 23 22 21 21 20 20 19 19 18 17 16 15 15 14 14
16 17 18 18 18 19 20 20 20 19 20 21 22 23 24 25 25 26 25 25 24 24 23 23 23 23 22 22 21 20 20 19 19 18 17 16 15 15 14 14 13 13 13

GEFSMA_500_meanwind_102.txt.gz
Wind_Speed
24 23 24 23 22 22 22 21 20 20 19 20 20 19 18 17 17 17 16 16 16 15 15 15 15 15 14 14 15 15 15 15 15 16 16 17 17 17 18 18 19 20 21
26 25 24 24 24 24 24 24 23 22 22 21 21 21 21 20 19 19 18 18 18 17 17 17 17 17 17 17 17 17 17 17 17 18 19 19 19 20 20 21 22 23 24
27 28 27 26 27 26 25 25 25 24 24 23 23 23 22 22 21 21 20 20 19 19 19 19 18 19 19 19 18 19 19 19 20 20 21 22 22 23 23 24 25 26 26
27 28 29 29 29 29 27 26 27 26 25 25 25 25 25 24 23 22 22 22 21 21 20 20 20 20 20 21 21 21 22 22 22 23 24 24 25 25 26 27 28 29 29
29 28 29 29 30 30 30 28 28 28 27 27 27 26 26 26 26 25 24 24 23 22 22 22 22 22 22 23 23 23 24 24 25 25 26 26 27 28 29 30 31 32 33
30 30 30 29 29 30 30 29 29 29 28 28 28 28 28 28 27 26 26 25 25 25 24 24 24 24 24 25 25 25 26 26 27 28 28 29 30 31 32 33 33 34 35
33 32 32 31 31 30 29 29 28 29 29 28 29 29 29 29 28 27 26 27 27 27 27 27 27 26 27 27 28 28 28 29 30 30 31 32 32 33 34 34 35 35 36
33 33 33 32 32 32 31 30 29 29 29 28 29 30 30 29 29 28 28 29 28 28 28 28 29 29 29 30 30 30 31 32 33 33 33 34 34 34 35 35 36 37 38
33 32 32 32 32 31 31 30 29 30 31 30 30 30 30 29 29 29 29 30 29 29 29 29 30 30 30 31 31 32 32 33 34 34 34 35 35 35 36 36 37 38 39
33 33 33 32 32 31 31 31 30 30 31 31 31 31 30 30 30 30 29 30 30 30 30 30 31 32 32 32 33 33 34 34 35 35 35 35 36 36 36 37 38 38 39
33 33 33 34 33 32 31 32 32 31 30 31 31 31 31 30 30 30 30 30 30 30 30 31 31 31 32 33 34 33 34 34 35 36 36 36 36 37 38 38 39 40 40
32 33 32 32 32 30 29 30 30 30 31 30 30 30 30 31 31 32 32 32 31 31 31 31 32 31 32 33 33 34 34 34 35 36 37 37 37 38 38 39 40 41 41
30 30 31 31 31 31 31 30 29 29 30 30 30 30 30 31 32 32 33 32 32 32 32 31 31 32 33 34 34 34 35 36 36 37 37 37 38 38 38 39 40 41 42
30 29 29 29 29 30 30 30 30 30 30 30 31 30 30 31 32 32 32 33 32 33 33 33 33 33 33 33 34 34 36 36 36 36 37 37 37 38 38 40 41 41 42
29 30 29 28 28 27 28 29 29 28 28 30 30 30 30 31 32 31 33 33 33 32 32 32 33 33 33 33 34 34 35 35 35 35 36 37 37 38 40 40 41 41 42
29 28 28 28 28 28 26 27 28 28 28 29 30 30 31 31 30 30 31 32 32 31 31 31 32 33 32 33 33 33 33 33 34 35 36 37 38 39 40 41 41 41 41
27 27 27 28 27 26 26 26 26 27 29 29 29 30 31 30 29 29 30 30 31 32 32 31 31 31 31 31 31 32 33 34 35 36 36 37 38 39 39 40 40 40 39
25 25 26 26 26 25 25 25 26 25 26 27 28 29 29 29 28 29 29 29 29 30 30 30 29 30 30 31 33 33 34 35 35 36 37 37 38 38 38 38 38 37 36
24 24 25 25 25 25 25 25 25 25 25 26 26 26 26 26 27 27 28 27 27 28 28 28 29 30 31 32 33 33 34 35 35 36 36 36 36 36 36 36 35 34 32
23 23 24 25 25 24 24 24 24 24 25 25 25 26 26 25 26 26 26 26 27 27 28 29 30 31 32 33 33 34 34 35 35 35 34 34 34 34 33 32 31 30 29
20 21 23 23 24 24 23 23 23 23 23 24 25 25 24 24 24 25 25 26 27 27 29 30 30 31 32 32 33 34 34 33 33 32 32 32 31 31 30 28 27 27 26
20 20 20 21 21 22 22 22 21 22 22 21 21 22 22 22 23 24 25 26 28 29 30 30 30 31 31 31 32 32 31 31 30 30 29 29 28 27 26 25 25 25 24
20 20 19 20 21 20 19 19 18 19 19 19 20 21 22 22 23 24 25 27 28 28 29 29 30 30 30 30 30 29 28 28 28 27 27 27 26 25 24 24 24 23 23
18 18 19 19 19 18 18 19 18 18 18 19 20 20 21 21 22 24 25 25 26 27 27 28 28 28 28 27 26 26 26 26 26 25 25 24 24 23 23 22 22 21 21
18 19 19 18 18 17 17 17 17 17 18 19 20 20 20 21 22 22 23 24 25 25 26 26 25 25 25 25 25 25 25 24 24 23 23 22 22 21 21 21 20 20 19
16 16 16 16 16 16 15 16 16 17 17 18 18 19 19 20 21 22 23 23 23 23 23 23 23 23 23 22 22 22 22 21 21 21 20 20 20 20 19 19 18 18 17

GEFSMA_500_meanwind_108.txt.gz
Wind_Speed
23 23 23 22 23 23 23 23 22 23 22 21 21 21 20 20 19 18 18 17 17 17 17 16 16 16 15 15 15 15 15 15 15 15 16 16 17 17 17 18 18 19 19
24 23 23 23 23 23 23 23 23 24 24 23 23 23 22 22 21 19 19 20 20 19 19 18 18 18 17 17 17 16 16 17 16 17 17 18 18 19 20 20 20 21 22
25 24 24 24 25 24 24 23 23 24 24 24 24 25 25 25 24 22 21 21 21 21 21 21 20 20 19 19 18 18 18 18 18 18 19 20 20 21 22 23 23 24 25
25 25 25 26 26 26 25 25 24 25 25 25 25 26 27 27 25 24 23 23 23 23 23 23 23 22 21 21 20 19 20 20 20 21 21 22 23 24 24 25 26 27 28
27 27 27 27 27 27 27 28 27 26 26 26 27 27 28 29 28 26 25 25 24 25 25 24 23 23 22 22 22 22 22 22 23 23 24 25 25 26 27 28 29 30 31
28 29 29 28 28 28 28 30 30 29 29 28 28 29 28 28 28 27 26 26 25 25 25 25 24 24 24 23 23 24 24 25 25 26 26 27 27 28 29 30 31 32 32
31 30 30 30 29 29 29 30 31 31 30 29 30 30 30 29 29 28 27 27 27 27 28 27 26 26 25 25 25 25 27 27 28 28 28 29 30 31 31 32 32 32 33
31 31 31 30 30 31 31 31 31 31 31 31 31 30 30 29 29 29 29 28 28 28 29 28 27 27 27 27 27 28 28 29 30 30 31 31 32 32 33 33 33 34 34
31 31 31 31 31 32 31 31 30 31 31 31 31 30 30 29 29 30 30 29 29 29 29 29 29 29 29 30 30 30 30 31 31 32 32 33 33 33 34 34 35 35 36
31 31 31 31 31 32 32 32 33 32 32 32 32 31 31 30 30 31 31 30 30 30 30 31 31 30 30 31 31 32 32 32 32 33 33 34 34 35 35 35 36 37 37
31 31 32 32 32 33 33 34 34 33 33 33 32 32 32 32 32 31 30 30 30 31 31 31 30 30 31 32 32 32 31 32 33 33 33 34 34 35 35 36 37 38 37
31 31 31 31 32 32 33 33 33 33 34 34 33 33 33 32 32 31 31 31 31 30 30 30 30 32 33 33 33 33 33 34 33 33 33 34 34 35 36 37 37 37 37
31 30 31 31 31 32 32 32 32 32 33 33 33 33 33 32 32 31 31 30 31 31 30 31 32 32 32 33 33 33 34 34 34 34 34 35 36 36 37 37 37 37 37
31 31 31 31 32 32 31 31 32 32 32 32 32 32 31 30 30 31 32 31 31 32 32 32 33 32 31 32 33 34 34 34 34 34 35 36 36 36 36 37 37 38 38
31 31 31 31 31 31 31 31 31 31 31 31 32 31 31 31 31 31 31 32 32 32 32 31 31 30 31 32 33 33 32 32 33 34 35 35 35 36 36 36 37 37 37
30 30 30 30 30 30 30 30 29 30 30 30 30 29 29 30 30 30 31 31 32 32 31 31 31 30 30 31 31 31 31 32 33 34 34 34 34 34 35 35 36 36 37
29 29 29 28 28 27 27 27 28 27 27 27 28 27 26 27 28 29 30 30 30 31 30 30 30 30 30 30 30 30 30 31 32 33 33 33 33 34 35 35 36 36 36
28 28 27 26 25 25 24 24 24 25 26 25 25 26 26 26 27 27 27 27 29 29 28 27 28 28 27 27 28 29 30 30 32 32 32 32 33 33 34 34 34 34 35
26 26 25 25 24 23 23 23 23 23 23 23 23 24 24 24 24 24 25 24 25 26 25 25 26 26 26 26 27 28 29 30 31 31 32 32 32 32 32 32 33 33 32
23 23 23 23 22 21 21 21 21 21 20 21 21 21 20 21 21 22 23 23 23 23 23 23 24 25 25 26 26 28 29 30 30 30 30 30 31 31 31 30 30 30 29
22 21 20 20 20 19 19 19 18 19 19 19 20 19 19 19 20 21 22 22 22 22 22 22 23 23 24 25 26 27 28 29 29 28 28 28 29 29 28 28 28 27 27
20 19 18 17 16 16 16 17 17 18 18 18 17 17 18 19 19 19 19 19 20 20 21 21 22 23 23 24 26 26 27 27 27 27 27 27 26 25 25 26 26 25 25
18 18 17 16 15 14 14 15 15 16 16 16 16 16 16 15 16 16 17 18 18 18 19 19 20 21 23 24 25 25 25 25 25 24 24 24 23 23 23 23 23 23 22
16 15 14 14 13 12 13 13 14 14 14 14 14 14 14 14 14 14 14 15 16 17 18 19 20 22 23 23 23 23 23 23 23 22 22 22 21 21 21 21 21 20 20
15 14 13 13 12 11 11 12 12 11 11 11 12 12 13 13 13 13 14 15 16 17 18 18 19 20 20 20 20 20 20 21 20 20 20 19 19 19 19 19 18 18 17
12 13 12 12 11 10 9 10 10 10 10 10 11 12 11 11 12 12 13 14 15 16 16 16 17 17 17 17 17 18 18 18 18 18 18 17 17 17 17 16 16 16 16

GEFSMA_500_meanwind_114.txt.gz
Wind_Speed
20 20 20 20 20 20 21 21 20 20 19 20 20 19 19 19 19 19 18 17 18 17 16 16 16 16 15 15 15 15 15 15 15 15 14 14 15 15 16 16 16 17 17
21 21 21 21 22 22 21 21 21 21 21 20 20 20 20 20 21 21 20 19 19 18 18 18 18 18 17 17 17 16 16 16 16 16 16 16 16 17 17 18 18 18 19
21 21 21 21 21 22 22 23 22 22 22 21 21 20 21 22 22 21 21 21 20 19 20 20 20 19 19 18 19 18 18 18 18 18 18 18 18 18 19 19 19 20 21
21 22 22 21 22 23 23 23 23 22 22 22 21 21 22 22 23 22 22 21 21 21 21 21 21 21 20 20 20 20 21 20 20 19 19 20 20 21 21 21 22 22 23
23 23 23 22 23 23 24 24 23 24 23 23 22 22 22 23 23 22 21 21 22 22 21 22 22 22 22 22 21 21 22 21 22 22 22 22 23 23 23 24 24 25 25
24 23 22 22 23 24 24 25 24 24 24 24 24 23 23 23 23 23 23 22 23 23 22 22 23 23 23 23 23 23 23 23 23 24 24 24 24 25 25 25 26 26 27
24 24 23 23 24 25 26 26 26 25 25 25 26 25 24 24 24 24 25 25 24 24 23 24 24 24 24 24 24 24 25 24 25 26 26 26 27 27 27 28 28 28 28
24 24 24 24 25 26 27 27 27 27 27 27 27 27 27 26 25 26 25 26 26 25 24 24 25 25 26 26 26 26 26 26 27 28 28 28 29 29 29 29 30 30 31
25 25 25 26 26 27 28 28 28 28 28 28 29 29 29 28 28 27 27 27 26 26 26 25 25 26 26 26 27 27 27 28 28 29 30 30 30 30 30 31 31 32 33
26 26 26 27 27 28 29 29 29 29 29 29 30 30 30 30 29 28 29 29 28 28 28 28 28 27 27 28 28 28 28 29 29 29 30 31 32 32 32 33 34 34 35
27 27 27 28 28 29 29 30 30 30 29 29 30 31 31 31 30 29 29 28 28 28 28 28 29 28 29 29 29 29 29 29 29 29 30 31 32 33 33 34 34 35 35
27 28 28 28 28 29 29 29 29 30 30 30 30 30 30 30 30 29 29 29 28 28 28 29 28 28 29 30 29 29 29 29 30 31 32 32 33 33 34 33 34 35 35
28 28 28 28 28 29 29 29 29 30 29 29 29 29 29 30 30 29 29 28 28 28 28 29 29 29 29 29 29 30 30 30 31 32 33 33 33 33 33 33 34 35 36
27 28 28 28 28 28 28 29 29 29 29 29 28 28 28 28 29 29 29 28 29 28 27 28 29 29 29 29 29 30 31 31 32 33 33 33 33 32 33 34 35 36 37
27 27 27 27 27 28 28 27 28 28 28 27 28 28 28 28 28 28 28 28 28 28 27 27 28 28 28 29 30 30 31 31 32 32 31 32 33 33 33 35 36 36 36
27 27 27 27 27 27 27 26 27 27 27 26 26 26 26 27 27 27 27 27 28 27 27 28 28 28 29 30 30 30 31 31 30 30 30 31 32 33 33 33 34 34 33
27 27 27 27 26 25 26 26 25 25 25 25 25 25 25 25 25 25 26 27 26 27 28 28 28 28 29 29 29 29 29 28 29 29 29 30 31 31 31 31 32 32 32
26 26 26 25 25 25 25 25 24 23 23 23 22 22 22 23 23 24 24 24 25 26 27 26 26 27 26 27 27 27 26 26 27 27 28 28 29 29 30 30 30 30 30
26 25 25 24 23 24 23 23 22 21 21 20 20 20 20 20 21 21 22 23 24 24 23 22 21 21 21 23 23 24 24 25 26 26 27 27 27 28 28 28 28 28 28
25 24 23 22 21 21 21 21 20 19 18 18 18 17 17 18 19 19 19 19 20 20 18 18 17 18 19 20 20 22 23 23 23 24 25 25 26 26 26 26 26 26 26
22 21 20 19 19 19 19 18 17 16 16 15 15 15 15 15 15 15 14 15 15 16 16 16 16 17 17 18 19 20 21 21 21 22 23 24 24 24 24 24 24 24 24
20 19 18 18 17 16 16 15 15 15 14 14 14 14 13 13 13 12 12 12 13 13 14 14 15 15 17 18 18 18 18 19 20 21 22 22 22 22 22 22 22 22 22
18 17 16 15 15 14 13 13 12 12 12 12 12 11 11 12 12 11 11 12 12 12 13 13 14 15 16 16 17 17 18 18 18 19 20 20 21 20 20 20 20 20 20
16 15 15 14 13 11 11 10 10 11 10 9 9 9 9 9 9 10 10 11 11 11 11 12 13 14 14 15 15 15 16 17 17 18 18 18 18 17 17 17 17 18 18
12 12 12 11 10 10 9 9 9 8 8 7 7 7 6 7 7 9 9 9 9 10 10 10 11 11 12 12 13 14 14 14 15 15 15 15 14 14 15 16 16 16 16
8 9 10 10 10 9 9 8 8 7 6 6 6 7 6 7 7 7 7 7 8 8 8 9 9 10 10 11 11 11 12 12 12 12 12 12 12 13 14 14 14 14 14

GEFSMA_500_meanwind_120.txt.gz
Wind_Speed
21 22 22 21 21 21 21 21 21 21 20 20 20 19 18 18 20 20 20 19 19 18 18 17 17 17 16 16 16 16 16 15 15 15 15 15 15 15 15 15 15 16 16
22 22 22 22 22 22 22 22 22 22 22 22 22 21 20 20 20 21 21 21 21 20 20 20 19 19 18 17 18 18 18 17 17 17 17 17 17 17 17 17 17 18 18
23 22 22 23 23 23 23 24 24 24 23 23 23 23 22 21 20 21 22 22 22 22 22 21 21 21 20 19 19 20 20 19 19 19 19 19 19 19 19 19 19 19 19
24 24 23 24 25 24 25 25 26 25 25 24 23 23 23 22 22 21 21 21 22 22 22 22 22 22 21 22 22 21 21 21 21 20 20 21 21 20 20 20 21 21 22
25 25 24 25 25 25 25 26 26 26 26 25 25 24 23 23 23 23 22 23 23 23 23 23 23 22 22 22 22 22 23 22 22 22 22 22 22 22 23 23 24 24 24
24 25 24 24 26 26 26 26 26 27 27 26 27 26 24 24 23 23 23 23 24 25 25 24 24 24 23 23 23 23 23 24 24 24 24 24 24 24 25 26 26 27 27
24 24 24 25 25 25 26 26 27 27 27 28 27 26 25 25 25 25 25 24 24 26 26 26 24 25 25 25 25 24 24 24 25 26 26 26 26 26 27 28 28 29 29
23 23 24 25 25 25 26 26 26 27 27 27 27 27 26 26 26 27 26 26 25 25 26 26 26 26 27 27 26 25 25 26 27 27 28 28 28 28 29 29 30 31 31
23 23 24 25 26 27 27 27 27 27 28 28 27 28 28 27 27 28 28 27 27 27 26 26 28 28 27 27 27 27 27 27 28 29 30 30 30 30 30 31 32 33 33
23 24 25 25 26 27 27 28 27 28 28 29 29 29 29 29 29 28 28 29 28 28 28 28 29 29 29 28 28 29 29 30 30 31 31 30 30 31 32 33 34 34 34
24 25 26 26 27 27 28 28 28 28 29 30 30 30 30 30 30 29 29 30 30 29 29 29 29 29 30 30 31 30 30 31 31 31 32 32 32 33 34 34 34 35 36
24 25 25 26 26 27 28 27 28 28 29 30 30 31 31 31 31 30 30 30 31 31 30 30 30 31 31 31 32 31 32 32 33 33 33 34 34 35 35 34 35 35 36
25 25 26 27 27 27 27 27 28 29 29 30 30 31 31 31 31 30 30 30 31 31 31 31 31 32 32 32 32 33 33 32 33 33 34 34 35 34 34 35 35 35 36
26 26 27 27 28 28 28 28 28 29 30 29 30 30 30 30 30 30 30 30 31 31 31 31 31 32 32 32 32 33 33 33 33 32 34 34 34 34 34 35 35 35 36
27 27 27 28 28 28 28 29 28 28 28 29 29 30 30 30 30 30 30 30 30 30 30 31 31 31 31 31 31 32 32 32 32 32 34 34 34 34 34 34 35 36 37
28 28 28 28 29 29 29 29 29 28 28 28 28 28 29 29 29 29 30 30 29 29 29 29 29 29 30 30 30 31 31 32 33 33 34 34 34 34 35 36 37 36 35
28 29 29 29 29 29 29 29 29 28 28 27 27 27 27 27 27 27 28 29 29 29 30 30 29 29 30 29 29 31 32 32 32 33 32 33 33 34 34 35 35 34 33
30 30 30 30 29 29 29 29 28 28 27 27 27 26 26 26 26 27 28 28 28 28 28 29 29 29 29 28 29 30 31 31 31 31 32 32 32 32 32 32 32 32 32
29 29 29 29 28 28 28 28 27 26 25 25 25 25 25 25 24 25 25 25 25 25 26 27 28 28 28 28 27 27 28 29 28 28 29 30 30 29 30 30 30 31 32
27 27 27 26 26 25 25 25 25 24 24 23 23 23 22 22 22 22 22 22 22 23 24 25 25 25 25 25 25 26 26 26 25 26 27 28 28 29 28 28 29 30 29
24 24 24 24 23 23 23 23 22 22 22 22 21 21 21 20 20 20 19 19 19 20 20 21 21 20 20 21 22 23 22 22 24 25 26 27 27 26 26 26 27 26 25
22 22 21 21 21 20 20 20 19 19 19 19 19 19 18 18 17 17 17 17 17 18 17 17 18 18 18 18 19 19 20 21 22 23 23 23 23 22 22 22 22 21 21
19 19 18 18 17 17 16 16 16 16 16 15 15 16 15 15 15 15 15 15 15 14 14 14 14 14 14 15 16 17 18 19 19 19 19 19 19 19 19 18 18 19 19
17 17 16 15 15 15 15 14 13 13 13 13 13 12 12 12 12 12 12 11 11 11 12 12 12 13 13 13 14 14 14 15 15 15 15 15 15 15 15 16 16 16 17
14 14 14 13 13 13 13 14 12 12 12 11 10 10 10 10 10 10 10 9 9 9 10 10 10 10 10 11 11 11 11 11 10 11 11 12 13 13 13 14 14 15 15
10 10 10 11 10 11 11 11 10 10 10 9 9 8 7 7 8 9 8 7 7 7 8 8 8 7 8 7 7 6 7 7 8 8 9 10 10 11 12 12 13 14 15

GEFSMA_500_meanwind_126.txt.gz
Wind_Speed
23 22 22 22 21 21 20 20 20 20 18 18 18 18 18 18 18 18 18 18 19 19 19 18 18 17 17 16 17 17 17 17 17 17 17 17 17 17 17 17 17 18 17
24 24 23 23 22 21 22 21 21 22 21 21 20 20 20 20 20 20 20 19 19 19 19 20 20 20 19 19 18 18 19 19 19 19 19 19 19 19 19 19 19 20 20
25 25 25 24 23 23 23 23 23 23 23 22 21 21 21 21 21 22 22 22 21 20 20 21 22 22 21 20 20 20 20 20 21 21 21 21 21 21 21 22 21 22 22
26 26 26 25 25 24 24 24 24 24 25 24 23 23 22 23 23 23 23 24 23 22 22 22 23 24 24 23 23 23 22 22 22 22 23 23 23 23 24 24 24 24 24
28 27 27 26 26 25 25 25 25 25 25 25 25 25 25 24 24 24 24 24 23 23 24 24 24 24 25 25 25 25 24 24 23 24 24 25 25 25 25 25 25 25 25
29 28 28 27 26 26 27 26 26 26 26 25 25 25 26 26 25 24 24 25 25 24 25 25 25 25 25 26 26 27 27 26 26 26 26 26 26 26 27 27 27 27 27
28 28 28 27 27 27 27 27 27 26 26 27 26 26 26 27 27 26 26 27 26 26 26 26 26 26 25 26 27 28 28 28 28 27 27 28 28 28 28 28 29 29 29
27 27 27 26 25 26 26 27 27 26 27 27 27 27 27 27 27 27 27 27 27 27 26 26 27 27 27 27 27 28 28 29 30 30 30 29 29 30 30 31 31 31 32
26 26 27 27 26 26 26 26 27 27 27 27 27 27 27 28 28 28 28 28 28 28 28 28 28 29 29 29 29 30 31 31 31 31 31 31 31 32 32 32 31 31 32
26 26 26 26 26 27 27 27 28 27 27 28 28 28 28 29 28 28 28 29 29 30 30 29 30 30 31 30 30 31 32 32 32 32 32 32 32 33 33 32 32 32 32
24 25 25 26 26 27 28 28 28 27 27 28 28 28 28 28 28 29 29 30 31 31 31 31 31 31 31 31 30 31 32 33 32 32 32 33 33 33 34 35 35 34 34
24 25 25 26 27 27 27 28 28 28 27 27 28 28 28 28 29 30 30 31 31 31 31 31 32 32 31 32 33 33 33 33 33 33 34 34 33 33 35 36 36 35 36
25 25 26 27 27 28 28 28 28 27 28 28 28 28 28 28 29 30 30 30 31 31 32 32 32 32 32 33 33 33 33 34 33 33 34 33 33 34 34 34 35 35 36
27 27 27 28 28 29 28 28 28 28 28 28 28 28 28 28 28 28 29 29 30 31 31 31 31 32 32 32 32 31 31 32 33 33 34 33 33 34 34 35 35 34 35
28 29 29 30 30 30 29 29 29 29 29 29 29 29 29 29 28 28 28 29 29 30 30 30 30 30 31 31 31 31 31 31 32 34 34 34 34 34 34 35 34 34 35
30 30 30 30 31 31 31 31 31 30 30 30 30 29 29 29 28 28 28 28 28 28 29 29 29 30 30 30 30 29 30 31 31 31 32 33 33 33 33 33 33 34 34
30 31 31 31 32 32 32 31 31 31 31 30 30 29 29 28 28 28 27 27 27 28 28 28 28 28 29 29 29 29 30 30 29 29 30 31 31 31 31 32 31 31 31
30 31 31 31 32 32 32 32 31 31 31 30 30 30 29 29 28 27 26 26 26 26 26 26 27 27 27 27 26 27 28 28 27 27 29 29 29 29 29 29 29 28 28
28 29 29 30 30 31 31 30 30 29 29 29 29 29 28 27 26 25 25 24 24 24 25 25 25 24 25 25 26 25 25 25 25 25 25 25 25 25 25 25 25 25 25
26 27 28 28 28 28 28 28 28 28 27 26 26 25 25 25 24 24 23 22 22 22 22 23 23 23 23 23 24 24 23 22 21 22 22 22 22 22 22 22 22 22 22
25 26 25 25 25 26 26 25 25 25 24 24 23 22 22 21 21 21 21 21 20 20 20 21 21 21 21 21 21 21 20 20 20 19 19 19 19 19 20 19 19 18 17
24 23 22 22 22 23 22 22 21 22 22 21 21 19 18 18 18 18 18 18 18 18 18 18 17 17 16 16 16 16 16 16 16 15 15 15 15 16 16 15 15 15 15
21 20 20 20 20 20 19 19 19 18 18 18 17 16 15 16 16 16 15 15 15 15 15 15 15 13 12 12 13 13 13 12 12 12 11 12 13 13 13 12 12 12 13
19 19 19 18 18 17 17 16 16 15 14 14 14 13 12 12 12 12 12 13 13 13 12 12 12 11 11 10 10 10 10 10 10 9 9 10 10 10 10 10 10 11 12
17 17 17 17 16 16 15 14 13 12 12 12 11 11 10 10 10 10 10 10 10 9 9 9 8 8 8 7 7 6 6 6 6 6 6 6 7 7 8 9 9 10 11
14 14 13 13 12 12 12 12 11 9 9 9 9 9 9 8 7 7 7 7 7 7 6 6 6 6 5 4 4 3 3 3 3 4 4 5 6 7 8 9 9 10 11

GEFSMA_500_meanwind_132.txt.gz
Wind_Speed
25 25 26 24 24 23 22 22 22 22 21 21 20 19 18 18 18 18 17 17 17 16 17 17 17 18 17 17 17 17 17 17 18 18 18 18 19 19 18 18 18 19 19
25 25 24 24 24 24 24 23 23 22 23 22 21 21 20 19 19 19 19 19 19 19 18 18 18 20 20 19 19 19 19 19 19 20 20 19 20 20 21 20 21 21 21
25 25 25 26 25 24 24 25 24 24 24 23 22 22 21 21 20 20 20 20 20 20 20 20 19 20 21 21 21 21 21 20 21 21 21 21 21 22 22 23 23 23 24
24 25 25 26 26 26 26 26 25 25 24 24 23 23 22 22 21 21 21 21 21 21 21 21 21 21 22 22 22 22 23 23 23 24 24 23 24 24 25 25 25 26 26
25 25 25 26 25 26 26 25 25 25 24 24 23 23 23 23 23 22 22 22 22 22 22 22 21 22 22 23 24 24 24 25 25 25 25 26 26 26 27 27 27 27 28
25 26 26 26 26 25 24 24 25 24 24 24 24 23 23 24 23 23 23 23 23 23 23 22 22 22 23 24 24 25 25 25 26 26 27 28 28 28 28 29 29 29 29
25 25 25 25 24 24 24 25 24 24 24 24 24 23 23 24 23 24 24 25 25 25 24 24 23 23 24 24 24 25 25 25 25 26 28 28 29 28 28 29 29 29 30
23 23 24 24 24 25 25 25 25 24 24 24 24 23 23 24 24 24 24 25 26 26 25 25 25 25 25 25 24 25 27 27 27 27 28 28 28 28 29 29 29 30 31
23 23 24 25 25 25 24 24 24 23 23 23 23 23 23 23 24 25 25 25 25 26 26 26 26 26 25 26 26 27 28 28 27 27 28 29 29 30 30 30 30 30 31
24 25 24 25 25 25 24 24 25 24 24 23 23 23 23 24 24 24 25 25 25 25 25 25 26 27 27 27 27 27 27 28 28 28 29 29 30 29 30 30 30 30 31
24 24 25 26 26 26 25 25 25 25 24 24 24 24 24 24 25 25 25 25 25 25 25 26 26 26 27 27 27 27 28 29 28 29 29 30 30 29 30 29 30 31 31
24 24 25 26 26 26 26 25 25 25 24 24 24 24 24 24 25 25 26 26 25 25 25 25 25 25 26 27 27 28 29 29 29 30 30 29 30 30 31 30 30 31 32
24 23 24 24 24 25 26 26 26 25 25 26 26 25 25 25 25 26 26 26 26 25 25 25 25 26 26 27 27 27 28 28 28 28 29 29 29 30 30 30 31 31 30
24 23 23 23 24 25 25 26 26 26 26 26 26 26 26 26 26 26 27 27 27 26 25 25 25 26 27 27 27 27 27 27 27 27 27 28 29 29 28 29 30 30 30
25 24 24 23 24 24 25 26 26 26 26 27 27 27 27 27 27 27 27 27 27 27 26 25 26 26 27 26 26 26 26 27 27 27 27 27 27 27 27 28 28 28 28
24 25 25 25 25 26 27 27 27 28 28 28 28 28 28 28 28 27 27 26 26 26 25 24 24 25 25 24 25 25 25 25 25 26 26 26 26 25 26 26 26 26 27
25 25 25 25 26 26 27 28 28 29 29 29 29 28 28 28 27 27 27 26 25 25 25 24 23 23 23 24 24 24 24 24 24 24 24 24 24 24 24 24 23 23 23
25 25 25 25 26 26 26 26 27 28 28 28 28 28 28 27 27 27 26 25 25 24 24 23 23 22 22 22 22 22 22 22 22 22 22 22 21 21 21 21 21 21 20
26 26 26 26 25 26 26 26 26 26 26 26 26 26 26 26 25 25 25 24 24 23 23 23 22 22 22 21 21 21 20 20 21 20 20 19 19 18 18 18 18 18 17
25 25 25 25 25 25 25 25 25 24 24 24 24 23 24 24 24 24 23 23 23 22 22 21 21 20 20 20 19 19 19 19 19 18 18 17 16 15 15 15 15 15 15
24 24 24 23 23 23 23 23 23 22 22 22 22 22 22 22 22 22 22 21 21 21 20 20 20 19 19 18 18 18 18 17 17 16 15 14 13 13 13 13 13 13 13
23 24 22 22 21 21 21 20 20 20 20 21 21 22 21 20 20 19 19 19 19 19 18 18 18 18 17 17 16 16 14 13 13 12 12 11 11 11 11 11 11 10 10
23 22 21 21 20 20 19 19 19 18 18 19 19 18 18 17 17 16 16 16 16 16 16 15 15 14 14 13 13 12 11 10 10 9 9 8 8 9 9 8 8 8 8
21 20 19 19 19 19 19 18 17 16 15 16 15 14 15 14 14 14 14 14 14 13 13 13 13 13 12 11 10 9 8 7 7 7 7 7 7 6 6 6 6 6 7
19 18 17 17 17 17 17 16 15 14 13 12 11 11 11 11 11 12 12 11 10 11 12 11 10 9 8 8 7 6 5 5 5 5 4 4 5 5 4 5 6 6 7
16 16 15 15 14 14 13 13 12 12 11 9 9 9 9 9 9 9 9 9 8 8 9 8 7 7 6 5 5 4 4 4 3 3 3 3 4 4 4 5 6 7 8

GEFSMA_500_meanwind_138.txt.gz
Wind_Speed
25 26 27 26 25 25 25 25 24 23 23 22 22 22 21 19 19 19 19 17 16 15 16 15 15 15 15 16 16 17 17 17 17 17 18 18 18 18 18 19 19 19 20
24 27 27 26 26 25 24 24 25 24 23 23 22 21 21 21 21 20 20 19 19 18 18 18 17 17 17 17 18 18 19 19 19 19 19 19 20 20 20 20 20 21 21
23 24 24 23 23 24 25 24 24 24 23 23 22 22 22 22 22 22 21 21 20 19 19 19 19 19 19 18 18 19 19 20 20 21 21 21 22 22 22 22 22 22 23
22 23 23 23 22 22 22 23 23 23 23 22 22 23 23 23 23 23 22 22 22 21 21 20 21 20 20 20 20 20 21 21 21 21 22 23 23 24 24 24 24 25 25
22 21 21 21 21 22 22 22 23 23 22 22 22 23 23 22 23 24 23 23 23 23 23 22 22 22 21 21 21 21 21 21 22 22 22 23 24 24 25 26 26 26 27
22 21 21 21 21 22 23 23 23 23 23 24 23 23 23 23 22 23 23 23 24 25 24 24 23 23 23 23 22 21 21 21 22 23 23 24 24 24 24 25 26 27 27
21 21 20 20 21 23 23 23 24 23 23 23 23 23 23 23 23 23 23 24 24 24 24 23 24 24 24 23 23 22 22 23 23 23 23 24 24 24 25 25 26 27 28
20 20 20 20 21 22 23 23 24 24 22 23 24 24 23 23 24 24 23 23 23 23 22 22 23 24 24 23 23 23 23 24 24 23 23 24 25 25 25 25 25 26 28
20 20 20 21 21 22 22 22 23 22 22 22 23 23 24 24 24 24 24 23 22 22 22 22 22 23 23 24 24 24 24 24 24 24 24 24 24 25 25 26 27 27 28
20 21 21 22 22 21 21 22 22 22 22 23 24 24 24 24 23 23 23 22 22 21 21 22 22 23 24 24 24 23 23 24 24 25 25 25 25 26 27 27 27 28 28
22 22 22 21 21 21 22 22 22 22 22 22 23 23 23 23 22 22 22 22 22 22 22 22 22 22 23 23 23 24 24 24 24 24 24 25 26 28 28 28 28 28 28
22 22 22 21 22 22 22 21 22 22 22 22 22 22 23 23 22 22 22 22 22 21 21 21 21 22 22 23 23 23 24 24 24 25 25 25 26 27 28 27 27 27 28
21 21 20 20 21 22 22 22 22 22 22 22 22 22 23 22 22 22 22 22 22 22 21 20 21 22 22 23 23 23 24 24 25 25 25 25 25 25 26 27 27 27 28
22 21 20 20 20 20 20 21 22 22 23 23 23 23 23 23 23 22 22 22 22 22 22 21 21 22 23 23 24 24 25 24 24 24 25 25 25 25 25 25 26 26 27
23 22 22 21 21 21 20 20 21 22 23 24 24 24 24 24 24 24 23 23 23 22 22 22 22 22 23 23 24 24 24 24 24 24 23 23 24 24 24 24 25 25 25
23 22 21 20 20 20 21 21 21 22 23 23 24 24 25 25 25 25 24 24 24 23 23 22 22 22 22 22 21 22 23 23 22 22 22 22 23 22 22 22 22 23 24
22 22 21 20 21 21 22 21 21 21 21 22 23 24 24 25 25 25 25 24 24 24 23 23 22 22 22 21 20 20 21 21 21 21 21 21 20 20 19 20 21 22 22
22 21 21 21 21 22 22 21 21 21 21 21 22 22 23 23 23 23 23 24 24 24 24 22 22 21 20 20 19 19 20 20 20 21 20 19 18 18 18 19 20 20 19
22 21 21 21 21 21 21 20 20 20 21 21 21 22 22 22 22 22 22 22 23 23 23 22 22 21 20 20 20 19 19 19 19 18 18 18 18 18 19 18 17 17 17
21 21 21 21 21 20 20 19 19 19 19 19 19 20 21 21 21 21 21 21 21 22 22 21 21 21 20 20 19 18 18 17 17 17 18 17 17 17 16 15 15 16 15
20 20 20 21 20 20 19 18 18 18 18 18 18 18 18 19 19 20 20 20 20 20 20 20 20 20 19 19 18 17 16 17 17 16 15 15 14 14 14 14 14 14 13
21 21 20 20 20 19 18 18 17 17 18 17 17 17 17 17 17 18 18 18 18 18 18 18 18 18 18 17 16 16 15 15 15 14 13 13 12 12 12 12 12 12 11
20 20 20 20 19 19 18 17 17 17 16 15 14 14 14 15 15 15 15 16 17 17 17 17 16 17 16 15 15 14 13 13 13 12 12 12 11 11 11 10 10 9 9
19 19 19 19 18 17 17 16 15 14 13 13 13 12 12 13 13 13 14 13 14 14 14 14 14 13 13 12 12 12 12 11 11 10 10 10 10 9 9 8 8 8 8
17 17 16 16 15 14 14 13 13 13 12 12 11 11 11 11 11 11 11 11 11 11 11 11 11 11 11 11 10 10 10 10 10 9 9 9 9 8 7 7 8 8 8
13 13 13 12 12 11 11 11 11 11 11 10 10 10 9 10 10 10 9 9 9 9 9 9 9 9 9 9 9 9 8 9 9 8 8 8 7 7 7 7 7 7 8

GEFSMA_500_meanwind_144.txt.gz
Wind_Speed
21 22 23 24 25 25 25 25 25 24 24 23 23 22 22 23 21 20 20 20 19 18 17 16 16 16 16 16 16 16 16 16 16 17 17 17 17 17 17 17 17 17 18
23 23 23 23 24 25 25 25 25 25 25 24 23 23 23 23 23 22 21 21 20 20 19 18 18 18 17 17 17 18 18 18 18 18 18 19 19 19 19 19 20 20 20
23 23 24 24 25 24 24 24 24 25 25 24 24 24 23 23 24 24 23 23 22 22 21 21 20 20 20 19 19 20 20 20 20 20 20 20 20 20 21 21 22 22 21
24 24 24 24 25 25 24 24 24 24 25 24 24 24 23 24 25 24 25 24 24 23 22 22 21 22 22 22 22 21 22 21 21 21 21 21 21 21 22 22 23 23 23
24 24 25 25 24 25 25 25 26 25 25 25 25 25 25 24 25 25 25 25 24 23 23 24 23 24 24 24 24 23 23 22 22 22 22 22 22 22 22 23 24 24 25
24 24 25 25 24 24 25 25 26 26 26 26 26 26 25 25 24 25 25 26 26 25 24 25 25 25 25 25 25 24 23 23 23 23 22 22 22 23 23 23 24 25 26
24 24 24 23 23 22 23 24 25 26 26 26 26 26 26 25 25 25 26 26 26 26 25 25 25 25 25 25 25 25 25 24 24 23 23 23 22 23 23 23 24 25 26
23 24 24 23 23 22 23 24 25 26 26 26 25 25 26 26 26 25 25 25 26 25 25 25 25 25 26 25 25 26 25 25 24 24 24 24 24 24 23 24 25 26 27
23 23 23 23 23 23 23 23 24 25 26 26 25 26 26 25 26 26 26 26 26 26 25 26 26 26 25 25 25 26 26 25 25 25 25 25 25 24 25 26 27 27 27
24 24 24 24 24 23 23 24 25 26 26 27 27 27 27 27 26 26 27 27 26 26 27 26 26 26 25 25 25 25 25 25 25 25 25 26 26 25 25 26 27 28 28
24 24 25 25 25 25 25 25 26 26 27 27 27 27 27 27 28 28 27 28 27 27 26 26 25 25 25 24 24 25 25 26 26 26 26 26 27 27 27 27 26 27 29
26 26 25 26 26 25 25 25 25 25 26 26 25 26 27 27 27 26 27 27 27 27 26 25 25 26 25 25 25 26 26 27 27 26 26 27 28 28 28 28 28 28 29
28 27 26 26 26 26 25 25 25 26 26 25 25 25 26 26 26 26 26 25 25 25 25 25 26 26 26 26 26 26 26 26 27 27 27 27 28 28 29 28 28 28 28
27 26 26 27 27 26 25 25 25 26 26 26 26 25 25 25 25 25 25 26 26 26 26 26 26 26 26 26 26 26 26 26 27 27 27 28 28 28 28 27 28 27 27
27 26 26 27 26 26 25 25 26 24 24 24 24 24 25 26 26 25 25 26 27 27 26 26 27 27 27 26 26 27 26 27 27 27 27 27 27 27 27 27 26 26 26
27 26 26 27 27 26 26 25 25 24 23 23 23 24 24 25 25 26 27 26 27 27 27 26 26 27 27 27 26 26 25 26 26 26 26 26 27 26 26 26 25 25 26
27 26 26 26 26 26 26 25 24 24 23 24 23 24 24 24 25 25 26 26 27 27 27 26 26 27 26 26 25 26 25 25 25 25 25 25 25 25 25 25 25 25 25
26 26 25 25 26 25 25 24 24 24 24 24 24 23 24 24 24 24 25 25 26 26 26 26 26 26 26 25 25 26 25 24 24 23 23 24 24 24 24 24 24 23 23
25 25 25 25 25 24 24 24 24 23 24 23 23 23 23 23 23 24 24 23 24 24 24 25 25 25 25 25 25 25 24 24 23 23 23 23 23 23 23 23 22 21 20
23 23 23 23 23 23 23 23 23 22 22 23 23 22 22 21 22 23 22 22 23 23 23 24 24 24 25 25 25 24 23 23 22 22 21 21 20 20 20 20 20 20 20
22 22 21 21 21 22 22 21 21 21 21 21 21 22 21 21 22 23 23 23 22 22 23 23 23 23 23 23 23 22 22 21 20 19 19 19 19 19 19 18 18 18 18
21 21 21 21 21 21 20 20 20 20 20 20 20 20 20 21 22 22 22 22 22 22 21 21 21 21 22 22 22 22 21 20 19 19 19 19 18 18 18 18 17 17 16
20 20 21 21 20 20 19 19 19 18 18 18 18 18 19 19 18 19 19 19 19 19 19 19 19 20 20 20 20 20 20 19 18 18 18 17 17 17 16 15 15 14 14
20 20 19 19 19 19 18 18 18 17 17 17 17 17 17 17 17 17 17 17 17 17 17 17 17 18 18 18 18 17 17 17 16 15 15 15 15 15 15 14 13 13 13
18 18 18 17 17 16 16 16 16 16 16 15 15 15 15 16 15 15 16 16 16 16 16 16 16 16 16 15 15 15 14 14 14 14 13 13 14 14 13 12 12 12 12
17 17 16 15 14 14 14 13 13 14 13 13 13 13 13 12 13 13 13 13 13 13 13 13 12 12 12 12 12 12 12 12 12 12 12 12 13 13 12 11 11 11 11

GEFSMA_500_meanwind_150.txt.gz
Wind_Speed
20 20 20 20 20 21 21 21 21 22 22 21 21 21 22 23 24 23 22 22 21 21 20 19 19 18 17 17 17 17 17 16 16 16 16 17 18 18 18 18 18 18 18
21 21 21 21 21 21 22 21 21 22 22 22 22 22 22 23 24 23 23 23 22 22 21 21 21 20 19 18 18 18 18 18 17 17 18 18 19 20 19 19 19 20 20
21 21 22 22 23 23 23 22 22 23 23 24 23 23 23 23 24 24 24 24 24 23 23 23 23 23 22 21 21 20 20 19 19 20 19 19 19 20 21 21 21 21 22
23 23 23 24 24 24 24 24 24 24 24 25 25 25 24 24 24 24 24 23 24 24 24 24 25 24 24 24 23 22 22 21 22 22 22 21 20 21 21 21 21 22 22
24 24 25 25 24 25 24 25 25 25 25 26 26 27 26 26 25 25 25 25 25 25 25 25 25 25 25 25 25 24 24 23 23 23 22 22 21 21 21 21 21 21 22
25 25 25 25 25 25 26 26 26 26 26 26 27 27 27 26 26 25 26 26 25 25 26 26 26 26 26 26 26 25 25 24 24 23 23 23 22 22 22 22 22 21 22
25 25 25 26 26 26 27 27 26 27 27 27 27 27 27 27 27 27 27 27 26 26 27 27 26 26 26 26 26 25 26 25 24 24 23 23 23 23 23 23 23 23 23
24 25 26 26 25 26 27 27 27 27 27 27 28 28 28 28 27 27 27 27 27 27 27 27 27 26 26 26 26 26 26 25 24 24 24 24 24 24 24 24 24 24 23
25 26 26 27 26 26 27 27 27 28 27 27 28 28 27 28 28 28 28 28 28 28 28 28 28 27 27 26 26 27 26 25 24 24 24 24 25 25 24 24 24 24 24
26 26 27 27 27 27 26 27 28 28 27 27 27 27 28 27 28 28 27 28 28 28 28 28 29 29 28 27 27 27 26 25 24 23 23 23 24 24 24 24 24 24 25
27 27 28 27 27 27 27 28 28 27 26 26 27 27 28 28 27 28 28 28 28 28 28 27 27 28 29 28 27 27 26 25 24 24 24 24 24 24 24 24 24 25 25
28 28 28 27 28 28 28 27 27 27 27 27 27 27 27 27 28 28 28 27 27 27 27 27 27 27 28 28 26 26 26 25 25 25 25 24 24 25 25 25 25 25 25
29 28 28 28 27 27 26 27 26 26 27 27 27 28 28 28 27 28 28 28 28 28 27 27 27 27 28 28 27 26 26 25 25 25 25 25 25 25 26 26 27 26 25
28 28 28 28 28 28 27 26 26 26 26 27 27 27 28 27 27 27 28 28 28 28 27 27 27 27 27 27 27 26 26 26 26 25 25 26 26 25 26 27 27 26 26
28 29 29 29 28 28 27 27 26 26 26 26 26 26 27 27 26 26 26 27 27 26 26 26 26 26 26 26 25 25 26 26 26 25 25 25 26 26 26 26 26 26 25
28 29 28 28 27 27 26 26 26 26 26 26 25 25 26 26 25 24 25 26 26 26 26 26 25 25 25 26 26 25 25 25 26 25 24 25 26 26 26 26 26 26 25
27 27 27 27 27 26 26 25 25 25 25 25 25 25 25 25 25 25 25 25 26 26 26 25 25 26 26 26 25 24 24 24 24 25 25 25 25 25 26 26 25 25 25
26 26 26 26 25 25 25 24 24 24 24 23 24 24 23 23 23 23 23 23 24 24 24 24 24 24 24 24 24 24 23 23 23 24 24 24 24 24 24 24 23 24 23
25 24 24 24 24 24 23 23 23 23 23 23 23 23 22 22 21 21 22 22 22 22 23 23 23 23 23 23 23 23 23 23 23 23 24 24 23 23 22 22 22 23 22
23 23 23 23 23 23 22 22 22 22 22 22 21 21 21 21 21 21 21 21 21 22 22 22 22 22 22 22 22 23 23 23 23 23 23 23 22 21 21 21 22 21 22
23 23 23 22 22 22 22 22 21 21 21 20 20 20 20 20 20 21 21 21 21 21 21 21 21 21 21 21 21 22 22 22 22 21 21 21 21 20 20 20 20 20 21
22 22 22 22 21 21 21 21 20 20 19 19 19 19 19 19 20 20 21 21 20 20 21 20 20 20 21 20 20 21 21 21 20 20 20 21 20 19 19 19 18 19 19
21 21 22 21 21 21 20 20 19 19 18 17 18 18 19 19 19 19 20 20 20 20 20 20 20 21 20 19 19 19 20 20 20 20 19 19 19 18 18 17 17 17 17
20 19 19 20 20 20 19 17 17 17 17 17 17 17 17 17 17 17 18 18 18 18 19 19 19 19 18 18 17 17 17 18 18 18 18 18 17 16 16 16 16 17 16
17 17 17 17 17 17 17 16 16 16 16 15 15 15 14 14 15 15 16 16 15 16 16 16 16 16 16 16 16 16 16 16 16 16 16 16 15 15 15 15 16 16 15
14 14 14 14 15 15 15 15 15 15 14 14 14 13 13 14 14 14 13 13 14 14 15 15 15 15 15 15 14 14 14 14 14 14 14 14 14 14 14 14 14 14 14

GEFSMA_500_meanwind_156.txt.gz
Wind_Speed
24 23 22 23 22 21 21 20 20 20 20 20 20 20 20 21 22 21 21 21 22 22 22 21 21 21 22 20 19 19 18 17 18 18 18 18 18 18 18 18 18 19 19
25 24 24 24 24 23 23 22 21 20 20 21 22 22 22 22 22 23 23 23 23 23 23 23 23 22 21 21 21 20 20 20 19 19 19 19 19 19 19 20 20 19 19
27 27 25 25 24 24 23 23 22 21 22 22 23 23 22 23 23 23 24 24 23 23 24 24 23 23 22 21 21 21 20 20 21 21 20 20 20 20 20 20 20 20 20
27 27 26 25 25 24 24 24 23 23 23 23 24 24 23 23 24 25 25 24 24 24 24 24 23 24 24 23 23 22 22 21 21 21 21 21 21 22 22 21 20 20 20
28 27 26 26 25 25 24 24 24 25 25 25 26 25 25 24 25 25 26 25 24 24 24 25 25 25 25 25 24 24 24 23 22 22 21 21 21 22 22 22 22 22 22
28 27 26 26 27 26 25 26 26 26 26 27 26 26 25 25 25 25 25 25 25 24 24 25 26 26 26 26 25 25 25 25 24 24 23 22 22 22 22 22 22 22 23
28 27 27 26 26 27 27 27 27 27 27 28 27 27 26 26 26 26 25 25 25 25 25 26 26 26 26 26 26 26 25 25 25 24 24 23 22 22 23 23 23 23 23
29 28 27 26 27 27 27 26 27 27 27 27 27 27 27 27 26 26 26 26 26 26 26 26 27 27 27 27 26 26 25 25 24 23 23 23 22 22 22 23 23 23 23
28 29 28 27 27 28 27 27 27 27 27 27 27 26 26 26 26 26 26 26 26 26 26 26 26 26 26 26 26 27 26 25 24 23 23 23 23 22 22 22 23 24 24
28 28 28 28 27 27 27 28 28 28 28 28 28 27 27 26 26 26 26 25 25 26 26 26 25 25 25 26 26 26 26 25 24 23 22 23 23 22 22 22 22 23 23
27 28 28 28 28 27 27 27 28 28 29 29 28 28 27 26 26 26 26 26 25 25 25 25 25 25 26 26 26 25 25 25 25 24 23 22 23 22 22 22 22 22 23
27 28 28 28 28 28 27 27 28 28 28 28 28 27 27 26 26 27 26 25 25 25 25 25 25 25 25 25 24 24 25 25 24 24 23 23 23 23 23 23 23 23 23
27 27 27 28 28 28 28 27 27 27 27 27 27 27 27 27 27 27 27 26 26 26 25 25 25 24 24 24 24 24 24 24 24 24 24 23 24 23 22 22 22 23 23
27 27 27 27 27 27 27 27 26 26 26 26 26 26 26 26 26 26 26 26 25 26 26 25 25 25 25 24 24 23 23 23 23 24 24 23 23 22 21 22 22 23 24
26 26 26 26 26 27 27 26 26 26 26 26 25 25 25 25 25 26 26 26 25 25 25 25 25 25 25 24 23 23 23 23 23 23 23 23 23 23 23 23 23 24 24
25 25 26 25 26 26 26 25 25 25 25 25 24 24 23 23 23 24 24 24 25 24 24 25 25 24 24 23 23 23 22 23 22 22 23 23 23 23 23 23 23 23 24
25 25 25 25 25 25 24 24 25 25 24 24 24 23 23 22 23 23 24 24 24 24 24 23 24 24 24 23 23 23 22 23 23 22 23 23 23 22 23 23 23 23 23
25 25 25 24 24 23 23 22 23 24 24 24 24 23 22 22 23 22 23 23 23 24 23 23 23 24 24 23 23 23 23 23 23 23 23 23 23 23 23 23 23 22 23
24 24 24 24 23 23 22 22 23 23 24 24 23 23 22 22 22 22 22 22 22 23 23 23 22 23 24 23 23 23 23 23 23 23 23 23 24 24 23 23 23 23 22
23 23 23 23 23 22 22 22 22 23 23 23 22 22 21 21 21 21 21 21 21 21 22 22 22 22 23 23 23 23 23 22 23 23 23 23 23 23 22 22 23 23 24
22 22 22 22 23 23 22 22 22 22 22 21 21 21 21 21 22 22 21 21 20 20 21 21 21 21 22 22 22 22 21 21 21 21 21 21 21 21 22 22 22 23 23
21 21 22 22 22 22 22 21 21 21 21 20 20 21 21 21 21 21 21 21 21 20 21 21 21 21 20 20 21 20 20 20 19 19 19 19 20 20 20 21 21 21 21
19 20 20 21 21 21 21 20 21 20 20 20 20 20 20 20 20 20 20 19 19 19 20 20 20 19 20 20 20 20 20 20 19 18 18 18 18 19 19 20 20 19 19
18 18 19 18 18 18 19 19 19 19 19 19 20 19 19 19 19 19 19 18 18 19 20 20 20 19 19 19 19 19 18 18 17 17 17 17 17 17 17 18 18 19 19
15 16 16 16 16 17 18 18 17 17 18 18 18 18 17 17 17 17 17 18 18 18 19 19 19 19 19 19 18 18 18 18 17 16 16 16 16 17 17 17 18 18 19
14 14 14 14 14 15 16 16 16 16 16 16 16 16 16 15 15 14 14 15 16 17 17 17 18 18 18 17 17 17 17 17 16 16 16 15 16 16 16 16 16 17 17

GEFSMA_500_meanwind_162.txt.gz
Wind_Speed
22 22 23 23 22 23 23 22 22 22 23 23 22 22 22 22 22 22 21 20 20 19 20 20 20 20 20 19 19 19 19 19 18 18 19 20 20 20 20 20 20 20 21
23 22 24 23 23 23 23 23 23 22 23 23 22 23 23 23 23 22 22 22 21 21 20 21 21 21 22 22 21 20 20 21 21 20 20 20 21 20 21 22 22 22 22
23 23 24 24 24 24 24 23 23 23 23 23 23 23 23 23 22 22 22 23 22 22 22 22 22 23 22 22 21 21 21 21 22 22 21 21 21 22 22 23 23 23 23
24 24 24 25 26 25 24 24 24 24 24 24 24 24 24 24 24 24 24 24 24 24 24 23 23 24 23 22 22 22 22 22 22 22 22 22 21 22 22 22 23 23 24
25 25 25 25 25 24 25 25 25 24 24 24 25 25 25 25 26 25 25 26 26 25 25 25 25 24 24 23 23 23 23 24 23 23 23 22 22 22 23 23 24 25 25
25 26 26 26 25 25 25 25 25 25 25 25 26 25 25 25 26 25 25 25 25 26 26 26 26 25 24 24 24 24 24 24 24 25 24 24 23 23 23 24 25 25 26
25 25 25 25 26 26 26 25 25 25 25 26 26 26 26 26 25 25 25 25 25 25 26 26 27 26 25 25 24 25 25 25 25 24 25 25 25 24 25 25 25 25 26
26 25 24 25 25 25 25 26 26 26 26 26 26 26 26 26 26 25 26 26 26 25 25 26 26 26 26 26 26 25 25 25 25 25 25 25 25 25 25 25 26 26 26
27 26 26 26 26 25 26 26 26 26 26 26 26 26 26 26 27 27 27 27 26 25 25 25 25 25 26 26 25 25 25 25 25 25 25 25 25 25 25 24 25 25 26
26 26 25 25 26 26 25 25 26 26 26 26 26 27 26 26 26 26 27 27 26 25 24 24 24 24 25 25 25 26 25 25 24 24 24 24 24 25 25 25 25 25 25
25 25 24 24 24 24 24 25 25 25 25 26 26 26 26 26 27 26 26 27 26 26 26 25 25 25 25 25 25 25 25 25 24 24 24 24 25 24 24 25 25 25 25
24 22 22 22 23 23 24 24 25 24 24 25 26 26 27 27 27 26 25 26 27 27 27 26 26 26 26 26 26 25 25 26 25 25 24 25 25 25 25 24 25 25 25
23 22 22 23 24 24 24 24 25 25 26 26 26 27 27 27 28 27 26 26 26 26 27 26 26 26 26 26 25 25 25 26 26 26 26 25 25 25 25 26 26 26 26
24 23 23 23 23 23 23 24 24 25 25 26 26 26 26 27 27 26 26 26 26 26 26 25 26 26 26 27 26 26 26 26 26 26 26 26 26 25 25 26 27 26 25
23 23 23 23 23 23 23 23 23 23 24 24 24 25 24 25 25 26 26 25 25 25 25 25 25 25 26 26 25 25 25 25 25 26 26 26 26 26 26 26 26 26 26
21 21 22 22 22 22 22 22 21 21 21 22 22 23 23 23 24 24 24 24 24 24 24 24 24 25 25 25 25 25 24 24 25 25 25 26 26 26 26 26 26 26 26
21 21 21 22 22 21 21 21 21 21 21 22 22 22 23 23 22 23 23 23 23 24 23 23 24 24 25 25 25 25 25 25 25 25 26 26 25 25 25 25 25 26 26
20 20 20 21 21 21 21 21 20 21 22 21 22 22 22 22 22 22 22 22 23 23 23 23 23 25 25 25 25 25 25 26 26 26 26 26 25 25 25 25 25 26 26
19 19 20 20 20 20 20 20 20 21 21 21 22 22 22 21 21 21 22 22 23 23 23 23 23 24 25 25 25 25 25 26 25 25 25 25 25 25 25 26 25 26 26
19 19 19 19 19 19 20 20 21 21 21 21 21 22 22 21 21 21 22 22 22 23 23 23 23 24 25 25 25 25 25 25 25 25 25 26 25 25 25 25 25 26 26
18 18 18 18 18 18 19 19 20 19 20 20 20 20 21 21 22 22 22 22 22 22 22 22 23 23 24 25 25 25 25 25 25 25 25 26 26 25 25 25 25 26 26
16 16 17 17 17 17 17 17 18 19 19 19 19 20 20 21 22 22 22 22 22 23 22 21 21 22 23 24 24 25 25 25 25 26 26 26 25 25 25 24 25 26 26
14 14 14 14 15 16 17 17 18 17 17 17 18 19 19 19 20 20 20 21 21 22 22 22 21 21 22 23 24 25 25 25 25 25 25 24 24 24 24 23 24 25 26
13 12 13 14 15 16 17 17 16 16 15 15 16 16 16 16 16 17 18 19 20 20 21 22 22 21 21 22 22 23 23 23 23 22 22 22 23 23 23 23 23 24 25
11 11 12 13 14 15 15 15 15 15 14 15 15 15 15 15 15 16 17 18 18 19 20 21 21 22 22 21 21 21 22 21 21 21 21 21 21 22 22 23 23 23 23
10 11 12 13 13 13 13 13 13 14 14 14 15 15 14 14 15 15 16 16 17 17 17 18 19 19 20 20 19 19 20 20 20 21 21 21 21 22 22 23 23 23 22

GEFSMA_500_meanwind_168.txt.gz
Wind_Speed
24 24 24 24 24 25 25 25 25 25 25 25 24 24 23 22 22 22 23 23 22 22 22 22 22 21 22 22 21 21 20 20 20 20 20 20 20 21 20 20 19 19 20
25 24 24 24 24 25 25 25 26 26 26 26 26 26 25 24 24 24 24 24 23 23 23 23 23 23 23 23 22 22 22 21 21 21 21 21 21 21 22 22 21 21 20
26 25 24 24 25 26 26 27 27 27 28 27 27 26 25 25 25 25 25 26 25 25 25 24 24 23 24 25 25 24 23 23 23 23 23 23 23 23 22 22 22 22 22
27 26 26 26 26 26 26 26 26 28 29 28 27 27 26 26 26 26 27 27 27 26 26 26 26 25 26 26 26 26 25 25 25 24 24 24 24 24 23 23 23 22 23
27 27 27 27 26 26 26 27 27 28 28 29 28 28 28 28 27 27 27 27 27 27 27 26 26 26 26 27 28 27 26 26 26 25 25 25 25 25 25 25 25 24 24
28 28 28 27 27 27 27 28 28 28 29 29 29 29 28 28 28 27 27 27 27 27 27 28 27 27 27 27 28 28 28 27 26 27 26 26 26 26 26 26 26 27 26
28 28 28 28 28 28 28 28 28 29 30 31 30 30 29 28 27 27 27 28 28 28 28 28 28 28 28 28 29 29 28 28 27 27 27 27 27 27 27 26 27 28 28
28 29 29 29 28 29 28 29 29 30 31 31 30 30 29 28 28 28 27 28 27 28 28 29 29 28 29 30 29 29 29 29 28 28 28 28 28 28 28 28 28 28 28
28 29 30 30 30 29 28 28 29 28 28 28 29 29 29 28 28 28 28 28 28 28 28 29 29 29 29 29 29 29 29 29 29 28 28 29 29 28 29 29 28 28 28
28 27 27 28 28 28 28 28 27 27 28 27 28 29 29 28 28 29 30 29 29 29 29 29 29 29 29 29 29 29 29 29 29 29 29 28 28 29 29 29 28 28 28
27 26 27 27 27 27 28 27 26 27 27 27 27 28 28 28 28 29 28 29 29 30 30 30 30 30 29 29 29 29 29 29 29 29 29 29 29 28 29 29 28 28 28
26 26 27 27 27 26 26 25 25 26 26 27 27 27 27 27 28 29 29 29 31 31 30 30 30 29 29 29 28 29 29 30 30 29 29 29 29 29 29 29 29 29 29
25 26 28 27 27 26 25 24 24 25 26 26 26 26 27 27 28 29 29 29 30 31 30 30 29 29 28 28 29 30 30 30 31 30 29 29 29 29 29 30 29 30 30
24 25 26 25 25 25 25 25 25 25 25 25 26 26 27 27 28 28 28 29 29 29 29 29 29 29 29 29 29 30 30 30 31 31 30 30 30 30 29 30 29 29 29
23 23 23 23 23 24 24 25 25 25 25 25 25 25 26 26 26 27 27 27 28 28 28 29 29 29 29 30 30 30 30 31 30 29 29 30 30 30 29 30 30 30 29
21 21 20 21 22 23 24 24 25 25 24 24 24 24 24 25 25 26 26 26 26 26 27 28 29 29 29 29 30 30 30 30 29 29 29 28 29 29 30 30 30 30 30
20 19 20 20 20 21 22 22 23 23 23 23 23 24 24 24 25 25 25 25 25 25 25 26 27 28 28 29 30 31 31 31 31 31 30 30 30 30 30 31 31 30 30
18 19 19 19 19 20 21 21 21 21 22 22 22 21 22 23 24 24 25 25 25 25 25 25 25 26 27 28 29 31 31 31 31 30 30 30 30 30 30 31 31 31 30
17 18 18 18 19 20 20 20 19 20 20 20 20 20 20 21 22 22 23 24 24 25 25 26 25 26 26 28 28 30 30 30 30 30 31 31 30 30 30 31 31 31 31
16 17 17 18 18 19 19 19 19 19 18 19 19 19 20 21 21 21 22 23 23 23 24 26 26 26 27 27 28 29 29 30 29 30 30 30 29 30 31 31 32 32 31
15 15 16 16 16 16 17 17 17 17 17 18 19 19 20 20 20 20 21 22 22 23 24 25 25 25 26 27 27 28 28 29 29 29 30 30 29 30 30 31 31 31 31
14 14 15 15 15 15 16 16 16 17 18 18 18 19 19 20 20 21 21 22 23 24 25 25 26 26 26 26 27 28 29 29 29 30 30 31 31 30 30 30 31 31 31
14 14 14 14 14 15 15 16 16 17 18 18 18 19 19 20 20 20 21 22 23 23 24 24 25 25 25 24 25 26 27 28 28 29 30 30 30 30 30 30 31 31 31
14 14 14 13 13 13 14 15 16 16 17 18 18 18 19 19 20 20 20 20 21 21 22 22 23 23 23 23 24 25 26 26 27 28 28 28 28 29 29 28 29 30 30
12 12 12 12 12 12 13 14 15 15 16 16 17 17 18 18 19 19 19 20 20 20 20 21 21 21 22 22 23 24 25 25 24 25 26 26 26 26 26 27 28 29 29
11 12 12 11 12 12 13 13 13 14 14 15 15 15 16 16 16 17 18 18 18 18 18 18 19 20 20 21 22 23 23 23 24 24 24 24 24 25 26 26 26 27 28

GEFSMA_500_meanwind_174.txt.gz
Wind_Speed
26 26 26 26 26 26 26 25 25 24 24 24 24 24 24 24 24 24 24 24 23 22 23 22 23 23 23 23 23 22 22 22 22 21 21 21 22 22 23 23 23 23 23
26 26 27 27 27 26 26 26 26 26 26 26 26 25 25 25 25 24 24 25 24 24 24 24 24 24 24 24 24 24 24 23 23 23 23 23 23 23 24 24 24 24 24
27 27 27 27 27 27 28 27 27 27 27 27 26 26 26 26 26 26 26 26 25 25 25 26 26 25 25 26 26 26 26 26 25 25 26 25 24 24 23 24 25 24 24
29 29 29 28 28 28 29 29 29 29 28 28 27 27 27 27 27 27 27 26 26 26 26 27 27 26 26 26 27 27 27 26 27 26 26 26 25 24 24 25 26 26 25
30 30 30 30 30 30 30 30 30 29 28 28 28 28 28 28 28 28 28 27 27 27 27 27 28 28 28 28 28 28 27 27 27 27 27 26 27 26 26 26 27 28 28
30 30 30 30 30 31 31 31 31 30 29 29 29 29 29 30 29 28 28 28 28 28 28 28 28 28 29 28 28 28 28 27 27 28 28 28 28 27 27 27 28 28 29
30 29 30 30 30 30 31 32 32 31 30 30 30 30 29 29 29 29 28 29 29 29 28 28 28 29 29 29 29 29 29 29 29 29 29 29 29 29 29 28 28 27 28
28 29 29 30 31 30 31 31 31 31 31 31 31 31 31 29 28 29 29 29 29 29 28 28 28 28 29 29 29 30 29 30 30 29 29 30 30 29 30 29 29 28 28
28 29 29 30 30 30 30 30 30 31 30 31 31 31 30 29 29 29 30 30 30 30 29 29 29 28 29 29 29 29 29 30 30 30 29 30 31 30 30 29 29 29 29
28 28 28 29 29 30 30 30 30 30 30 30 30 30 30 30 29 29 29 30 30 30 30 29 29 29 30 30 30 29 30 30 30 29 29 30 30 30 31 30 29 29 30
27 27 27 28 28 29 29 29 29 29 30 30 30 30 30 30 29 29 29 30 30 30 30 30 30 30 30 30 30 30 30 30 30 30 30 30 30 30 30 31 31 31 31
26 26 26 27 27 28 28 28 29 29 30 30 29 29 29 29 29 29 28 29 29 29 29 30 30 30 30 30 30 30 31 31 31 30 30 31 30 31 31 31 31 31 31
26 25 25 26 26 25 25 26 26 27 28 28 28 27 27 27 27 27 27 27 27 27 28 29 30 30 30 30 30 31 31 32 31 31 30 31 31 31 31 31 31 30 30
24 23 24 23 24 24 24 25 26 26 26 27 27 27 26 26 26 26 26 26 26 27 27 28 29 30 30 30 30 31 31 32 32 31 30 31 31 32 31 32 32 31 31
22 22 23 22 22 22 22 22 23 24 24 25 25 25 24 24 24 24 25 25 25 26 27 28 28 29 29 30 30 30 31 31 31 31 31 31 32 32 32 32 32 33 33
21 21 21 22 22 21 21 22 23 23 23 23 23 23 23 22 21 22 23 23 24 24 26 27 28 28 28 29 30 31 31 32 32 31 31 31 32 32 32 32 32 32 33
20 20 20 20 20 19 19 20 20 20 20 21 21 22 22 23 22 22 23 23 24 25 25 26 27 28 28 29 30 30 31 32 32 32 32 32 33 33 33 33 33 32 32
18 18 18 18 18 17 17 16 17 18 19 19 19 20 20 22 22 22 23 23 24 25 25 25 25 27 27 28 29 30 30 31 32 32 32 33 33 34 33 34 34 33 33
17 17 17 17 16 16 16 16 16 16 17 18 18 18 19 20 20 20 21 22 23 24 24 24 24 25 26 27 28 29 29 30 31 32 32 32 33 34 34 34 34 34 34
15 15 14 14 14 15 15 14 14 15 15 16 17 18 18 18 19 19 19 20 21 22 23 23 24 24 25 25 26 28 28 29 29 30 32 32 33 33 34 34 34 34 34
14 13 13 13 13 15 15 13 14 15 16 16 17 18 18 18 18 19 20 20 22 23 23 24 24 24 25 26 27 28 29 29 29 29 30 31 32 32 33 34 34 34 35
12 12 12 12 13 14 14 13 14 15 16 16 17 18 18 19 19 19 20 21 22 22 22 23 24 25 26 27 27 28 29 29 30 31 31 31 31 32 33 34 35 35 35
12 12 11 11 12 12 13 14 14 15 15 16 17 17 18 18 18 18 18 19 20 20 21 22 23 24 25 26 26 27 28 28 30 31 32 31 31 31 32 33 34 34 34
12 11 11 11 11 12 13 13 14 15 15 16 16 17 17 17 16 17 18 18 19 18 19 20 21 22 24 25 25 26 26 27 28 28 28 29 29 30 32 32 33 33 33
11 11 11 12 12 12 13 13 14 14 14 15 15 15 15 15 15 15 16 16 16 17 17 18 19 20 21 22 22 23 24 25 25 26 28 28 28 29 30 31 32 32 32
11 11 11 12 12 13 13 13 13 14 14 14 15 15 15 15 14 14 14 15 15 16 16 16 17 18 19 19 20 21 22 23 24 25 26 27 28 28 28 29 30 30 31

GEFSMA_500_meanwind_180.txt.gz
Wind_Speed
26 25 25 24 25 25 26 25 24 24 24 24 25 25 25 25 25 24 24 24 24 24 24 24 24 23 23 23 23 23 23 23 23 23 23 24 23 23 23 23 24 24 23
27 27 26 26 26 27 27 26 26 25 25 26 26 26 26 26 26 27 25 25 25 25 26 25 24 24 24 24 24 24 24 24 24 25 25 25 25 24 23 24 25 25 25
28 28 28 28 28 28 28 28 27 27 27 26 26 26 26 26 27 27 26 25 26 26 26 26 25 25 25 25 25 25 25 25 25 25 25 26 27 26 25 24 25 25 26
29 29 28 28 29 29 29 28 27 28 28 27 27 28 27 27 26 26 27 27 26 26 26 26 26 26 26 26 26 26 26 26 25 26 26 26 27 28 27 26 25 26 26
30 29 29 29 29 29 28 28 27 28 29 28 28 28 27 27 26 27 28 28 27 27 27 26 26 26 26 26 27 27 27 27 26 26 26 26 27 28 28 28 27 27 27
30 30 30 30 29 29 29 28 28 28 28 28 29 28 27 27 27 26 27 27 27 28 27 27 27 27 27 27 27 27 27 28 27 27 27 27 27 28 28 29 30 29 29
31 30 30 30 29 29 29 29 29 29 28 28 29 29 29 28 28 28 28 27 27 27 27 27 27 27 28 28 27 28 28 29 29 28 27 27 27 28 29 29 30 30 30
31 31 31 30 29 29 28 29 29 29 29 29 30 30 29 28 28 29 29 29 29 28 28 28 27 28 28 28 28 28 28 28 29 29 28 29 28 28 28 29 29 30 30
31 30 30 29 28 28 28 29 29 29 29 29 30 30 30 29 29 29 30 30 29 28 28 28 28 28 28 28 28 28 27 27 29 29 29 29 29 29 29 28 28 29 30
30 29 29 28 28 28 28 28 29 29 29 28 29 29 29 29 29 29 29 29 29 29 28 28 29 29 29 28 28 27 27 28 28 29 29 29 29 29 29 29 29 29 30
27 27 26 27 27 26 27 27 28 28 27 27 27 28 28 28 28 28 27 28 28 28 27 28 28 28 28 28 28 27 28 29 29 29 29 30 30 30 29 30 30 30 30
26 25 25 25 25 25 25 26 27 26 26 26 26 27 27 27 27 26 26 26 27 26 27 27 27 27 28 28 27 27 28 29 30 30 31 30 30 31 30 30 30 30 31
25 25 24 24 24 24 25 26 26 25 24 24 25 26 26 26 26 26 26 25 25 25 25 26 27 27 27 27 27 27 28 29 29 29 30 30 30 30 31 31 31 31 31
24 24 23 23 23 23 24 24 24 23 23 24 25 26 27 26 26 26 25 25 25 24 24 23 25 26 27 27 27 27 28 29 29 29 30 30 31 31 31 31 31 31 32
24 23 23 23 23 22 23 23 23 22 22 22 23 24 24 25 25 25 25 26 26 25 24 23 24 25 26 26 27 28 29 29 29 30 30 30 30 31 31 32 32 32 32
22 22 21 21 21 21 22 22 22 22 22 22 22 22 23 23 23 24 24 25 26 25 24 24 25 25 25 26 27 29 29 30 30 29 30 30 31 31 31 32 32 33 33
21 21 19 19 19 20 20 21 21 21 20 20 20 21 21 22 22 23 24 24 25 25 25 24 25 27 26 26 27 28 29 29 30 30 30 30 30 31 31 32 33 34 34
20 19 18 18 18 19 19 19 19 19 19 19 19 20 20 21 21 22 22 24 25 24 24 25 26 27 27 27 27 27 28 29 29 29 30 30 30 31 32 33 34 34 34
18 18 18 18 18 19 19 18 18 18 18 18 18 18 19 20 22 22 22 23 23 23 23 23 24 25 25 26 26 26 26 27 28 29 29 30 31 32 33 34 34 34 35
17 18 18 18 18 18 18 17 17 17 17 16 16 17 19 20 21 21 22 22 23 23 24 24 24 24 25 26 26 26 26 27 27 29 30 30 31 32 33 34 35 35 35
17 18 17 17 17 17 18 17 16 16 16 16 16 17 18 19 20 20 21 22 23 23 24 23 23 24 24 25 25 26 27 27 28 28 28 29 30 31 32 32 33 34 35
17 17 17 17 16 17 17 17 16 16 17 18 18 18 19 19 19 20 20 21 21 22 23 24 24 24 24 24 24 25 26 26 27 28 28 29 30 30 31 32 33 33 33
16 16 16 15 15 16 16 16 16 16 17 18 19 20 20 19 19 20 21 21 21 21 22 23 23 23 23 24 24 24 25 25 26 27 28 28 29 30 31 32 32 32 32
14 14 15 15 14 14 15 15 16 16 17 18 19 19 20 20 21 21 21 21 20 20 20 20 20 21 22 23 23 23 23 25 25 26 27 28 29 29 30 30 31 31 31
14 14 14 15 14 14 15 16 16 16 17 18 19 19 19 20 19 19 19 18 18 18 18 18 19 19 20 21 21 22 22 24 24 25 26 26 26 27 27 28 29 31 31
13 13 14 15 15 15 15 16 17 17 18 18 19 19 19 19 18 18 17 17 16 16 16 16 18 19 20 20 21 22 22 23 23 23 24 25 26 26 26 27 28 29 30

GEFSMA_500_meanwind_186.txt.gz
Wind_Speed
22 22 22 22 22 22 22 22 22 22 21 21 22 24 24 24 25 25 25 25 25 25 25 24 24 24 24 24 24 23 23 23 23 24 25 25 25 25 25 25 24 24 23
23 23 23 24 23 23 23 23 23 23 22 22 22 24 25 25 25 25 25 25 26 26 25 25 25 25 25 25 25 25 25 24 24 25 25 26 26 26 26 26 26 26 25
23 23 24 23 23 24 24 23 23 23 23 23 23 24 25 26 26 26 25 25 26 26 26 26 26 26 26 26 26 26 26 26 26 26 26 27 27 27 27 27 26 26 26
24 24 24 24 24 24 24 24 24 24 24 24 23 24 25 26 27 27 27 26 26 26 26 26 26 26 27 27 27 27 27 27 26 27 27 28 28 28 28 28 28 28 28
25 24 24 24 24 24 23 24 24 24 24 24 24 24 25 26 26 27 27 26 26 26 26 27 26 27 27 28 28 28 28 28 28 27 28 29 29 29 29 29 29 29 29
25 25 24 24 24 24 24 23 23 24 24 25 25 25 25 25 26 26 26 27 26 26 26 27 27 27 28 28 29 29 29 29 29 28 28 29 30 31 30 30 30 30 29
25 25 25 25 25 25 25 25 25 24 24 25 25 25 25 25 26 26 26 26 26 27 27 27 28 28 28 29 30 30 30 30 30 29 29 30 31 32 31 31 31 30 30
25 26 25 25 26 25 25 25 25 25 25 24 24 25 25 26 26 26 26 26 27 28 28 28 28 29 29 29 30 30 30 30 31 31 30 30 31 32 32 32 31 32 31
25 25 25 25 25 25 24 25 25 25 25 24 24 25 25 25 25 25 25 26 27 28 28 29 29 29 29 30 30 30 31 31 31 31 31 31 31 32 32 33 33 33 33
25 25 25 24 25 25 25 25 25 24 24 23 24 25 25 24 25 25 25 26 26 27 28 28 28 29 29 30 30 31 31 31 31 32 32 32 32 32 33 34 34 34 34
23 24 24 23 24 24 24 24 24 23 23 23 23 24 24 24 24 25 25 25 25 26 27 27 28 29 29 29 31 31 32 32 32 32 32 32 32 32 33 34 34 34 34
23 23 23 23 22 22 23 23 23 22 23 23 23 23 24 24 23 23 24 24 25 25 26 27 28 28 29 29 30 30 31 32 32 32 32 32 32 33 33 33 34 34 35
23 23 22 22 22 22 22 22 22 22 22 22 23 23 23 22 22 23 23 23 23 24 25 26 27 28 29 29 29 30 30 32 33 32 32 33 33 33 33 34 34 35 35
23 21 21 22 22 21 21 21 21 21 21 21 21 22 22 22 23 23 23 23 23 24 25 25 26 27 27 28 28 28 29 31 32 33 33 34 34 34 34 35 35 35 36
21 20 20 20 20 20 20 19 19 19 20 20 20 20 21 21 21 22 23 23 24 24 24 26 26 27 27 27 28 29 29 30 31 33 33 33 34 35 35 34 35 36 36
20 20 20 19 18 19 19 19 19 20 20 20 20 20 21 21 21 22 23 23 23 24 25 26 26 27 28 28 28 28 30 31 32 33 34 34 34 35 35 35 36 36 37
19 19 19 18 18 18 19 19 19 20 20 20 20 21 21 21 22 22 23 23 24 25 26 26 27 27 28 29 30 29 29 30 31 32 34 34 35 35 35 35 36 36 37
18 18 18 18 17 17 18 18 18 18 19 19 20 20 21 21 22 22 22 22 23 24 25 25 26 26 27 28 29 29 30 30 30 30 32 33 34 34 34 35 36 36 37
18 17 17 17 17 18 18 17 17 17 18 18 19 19 20 19 20 21 21 22 23 24 24 25 25 25 26 28 28 29 29 30 30 30 31 32 32 33 33 34 35 36 36
17 17 17 17 17 17 17 16 16 17 17 18 18 19 19 18 19 20 21 21 22 23 24 24 24 24 25 26 27 28 29 29 29 30 30 31 31 32 32 34 35 36 36
17 16 16 16 16 16 15 15 16 16 17 17 17 18 19 18 18 18 19 20 21 22 23 23 24 24 24 24 25 27 28 28 28 29 30 31 31 31 32 33 34 35 36
16 16 15 15 15 15 14 15 15 16 16 16 16 17 17 17 18 18 18 19 19 21 22 23 23 24 24 25 25 25 26 27 27 28 28 29 29 30 31 33 35 35 35
15 14 14 14 15 14 14 14 15 16 16 16 17 17 17 17 17 17 18 19 20 20 21 22 22 23 24 24 24 24 25 26 26 27 28 28 29 30 31 32 33 34 35
13 12 12 14 14 13 13 14 15 16 17 17 18 18 18 18 18 18 19 19 19 19 20 20 20 21 22 23 23 23 23 24 25 26 27 28 29 30 31 32 32 33 34
12 12 13 13 13 12 13 14 16 16 16 17 18 18 18 18 18 18 18 19 18 18 18 19 19 20 20 22 23 23 23 24 24 26 27 27 28 29 30 31 32 33 34
11 11 11 11 12 13 14 15 15 15 16 16 17 17 17 17 18 18 18 17 17 17 18 18 18 18 19 20 21 22 23 23 24 24 26 26 26 27 28 30 31 31 32